Time,TemperatureF,DewpointF,PressureIn,WindDirection,WindDirectionDegrees,WindSpeedMPH,WindSpeedGustMPH,Humidity,HourlyPrecipIn,Conditions,Clouds,dailyrainin,SoftwareType,DateUTC
2013-06-22 00:00:00,73.2,69.8,30.18,NE,49,0.0,2.7,89,0.00,,---,0.00,VWS V14.01,2013-06-22 04:00:00,
2013-06-22 00:01:00,73.2,69.5,30.18,NE,49,0.0,0.0,88,0.00,,---,0.00,VWS V14.01,2013-06-22 04:01:00,
2013-06-22 00:06:00,73.6,70.1,30.18,NE,46,5.8,5.8,89,0.00,,---,0.00,VWS V14.01,2013-06-22 04:06:00,
2013-06-22 00:11:00,73.8,69.3,30.18,East,85,3.6,3.6,86,0.00,,---,0.00,VWS V14.01,2013-06-22 04:11:00,
2013-06-22 00:16:00,73.9,68.1,30.18,ENE,59,2.7,4.9,82,0.00,,---,0.00,VWS V14.01,2013-06-22 04:16:00,
2013-06-22 00:21:00,74.1,67.2,30.18,ENE,70,4.0,5.4,79,0.00,,---,0.00,VWS V14.01,2013-06-22 04:21:00,
2013-06-22 00:26:00,73.8,65.0,30.18,NNE,17,0.0,0.0,74,0.00,,---,0.00,VWS V14.01,2013-06-22 04:26:00,
2013-06-22 00:31:00,73.6,66.3,30.18,East,82,2.2,2.2,78,0.00,,---,0.00,VWS V14.01,2013-06-22 04:31:00,
2013-06-22 00:32:00,73.8,66.5,30.18,ESE,117,0.0,2.2,78,0.00,,---,0.00,VWS V14.01,2013-06-22 04:32:00,
2013-06-22 00:36:00,73.9,67.4,30.18,East,82,3.6,3.6,80,0.00,,---,0.00,VWS V14.01,2013-06-22 04:36:00,
2013-06-22 00:37:00,73.9,67.4,30.18,East,91,5.4,5.4,80,0.00,,---,0.00,VWS V14.01,2013-06-22 04:37:00,
2013-06-22 00:41:00,74.1,66.8,30.18,ENE,71,0.0,0.0,78,0.00,,---,0.00,VWS V14.01,2013-06-22 04:41:00,
2013-06-22 00:42:00,73.9,66.3,30.18,ENE,71,0.0,0.0,77,0.00,,---,0.00,VWS V14.01,2013-06-22 04:42:00,
2013-06-22 00:46:00,73.6,64.4,30.18,NNE,13,3.6,3.6,73,0.00,,---,0.00,VWS V14.01,2013-06-22 04:46:00,
2013-06-22 00:47:00,73.6,64.4,30.18,NNE,13,3.6,3.6,73,0.00,,---,0.00,VWS V14.01,2013-06-22 04:47:00,
2013-06-22 00:51:00,73.2,64.1,30.18,North,349,2.7,3.6,73,0.00,,---,0.00,VWS V14.01,2013-06-22 04:51:00,
2013-06-22 00:52:00,73.0,63.9,30.18,North,349,2.7,2.7,73,0.00,,---,0.00,VWS V14.01,2013-06-22 04:52:00,
2013-06-22 00:56:00,72.9,64.1,30.18,North,1,0.0,0.0,74,0.00,,---,0.00,VWS V14.01,2013-06-22 04:56:00,
2013-06-22 00:57:00,72.7,63.9,30.18,North,1,0.0,0.0,74,0.00,,---,0.00,VWS V14.01,2013-06-22 04:57:00,
2013-06-22 01:01:00,72.5,64.1,30.18,North,1,0.0,0.0,75,0.00,,---,0.00,VWS V14.01,2013-06-22 05:01:00,
2013-06-22 01:02:00,72.5,64.1,30.18,North,1,0.0,0.0,75,0.00,,---,0.00,VWS V14.01,2013-06-22 05:02:00,
2013-06-22 01:03:00,72.3,64.3,30.18,North,1,0.0,0.0,76,0.00,,---,0.00,VWS V14.01,2013-06-22 05:03:00,
2013-06-22 01:06:00,72.3,64.7,30.18,North,1,0.0,0.0,77,0.00,,---,0.00,VWS V14.01,2013-06-22 05:06:00,
2013-06-22 01:07:00,72.3,64.7,30.18,North,1,0.0,0.0,77,0.00,,---,0.00,VWS V14.01,2013-06-22 05:07:00,
2013-06-22 01:08:00,72.1,64.9,30.18,NNE,15,0.0,0.0,78,0.00,,---,0.00,VWS V14.01,2013-06-22 05:08:00,
2013-06-22 01:11:00,72.1,64.9,30.18,North,11,0.0,0.0,78,0.00,,---,0.00,VWS V14.01,2013-06-22 05:11:00,
2013-06-22 01:12:00,72.1,64.9,30.18,North,11,0.0,0.0,78,0.00,,---,0.00,VWS V14.01,2013-06-22 05:12:00,
2013-06-22 01:13:00,72.1,64.9,30.18,North,11,0.0,0.0,78,0.00,,---,0.00,VWS V14.01,2013-06-22 05:13:00,
2013-06-22 01:16:00,72.0,65.1,30.18,North,11,0.0,0.0,79,0.00,,---,0.00,VWS V14.01,2013-06-22 05:16:00,
2013-06-22 01:17:00,72.0,65.1,30.18,North,11,0.0,0.0,79,0.00,,---,0.00,VWS V14.01,2013-06-22 05:17:00,
2013-06-22 01:18:00,72.0,65.1,30.18,North,9,0.0,0.0,79,0.00,,---,0.00,VWS V14.01,2013-06-22 05:18:00,
2013-06-22 01:21:00,72.0,65.5,30.18,North,9,0.0,0.0,80,0.00,,---,0.00,VWS V14.01,2013-06-22 05:21:00,
2013-06-22 01:22:00,72.0,65.5,30.18,North,9,0.0,0.0,80,0.00,,---,0.00,VWS V14.01,2013-06-22 05:22:00,
2013-06-22 01:23:00,72.0,65.5,30.18,North,7,0.0,0.0,80,0.00,,---,0.00,VWS V14.01,2013-06-22 05:23:00,
2013-06-22 01:26:00,72.1,66.7,30.18,NE,54,0.0,0.0,83,0.00,,---,0.00,VWS V14.01,2013-06-22 05:26:00,
2013-06-22 01:27:00,72.1,66.7,30.18,NE,54,0.0,0.0,83,0.00,,---,0.00,VWS V14.01,2013-06-22 05:27:00,
2013-06-22 01:28:00,72.1,66.7,30.18,NE,54,0.0,0.0,83,0.00,,---,0.00,VWS V14.01,2013-06-22 05:28:00,
2013-06-22 01:31:00,72.1,66.7,30.18,ENE,75,0.0,0.0,83,0.00,,---,0.00,VWS V14.01,2013-06-22 05:31:00,
2013-06-22 01:32:00,72.1,66.7,30.18,ENE,75,0.0,0.0,83,0.00,,---,0.00,VWS V14.01,2013-06-22 05:32:00,
2013-06-22 01:34:00,72.3,67.2,30.18,ENE,75,0.0,0.0,84,0.00,,---,0.00,VWS V14.01,2013-06-22 05:34:00,
2013-06-22 01:36:00,72.3,67.2,30.18,East,87,0.0,0.0,84,0.00,,---,0.00,VWS V14.01,2013-06-22 05:36:00,
2013-06-22 01:37:00,72.3,67.2,30.18,East,87,0.0,0.0,84,0.00,,---,0.00,VWS V14.01,2013-06-22 05:37:00,
2013-06-22 01:39:00,72.3,66.9,30.18,North,7,0.0,0.0,83,0.00,,---,0.00,VWS V14.01,2013-06-22 05:39:00,
2013-06-22 01:41:00,72.3,66.9,30.18,NNE,25,0.0,0.0,83,0.00,,---,0.00,VWS V14.01,2013-06-22 05:41:00,
2013-06-22 01:42:00,72.3,66.9,30.18,NNE,25,0.0,0.0,83,0.00,,---,0.00,VWS V14.01,2013-06-22 05:42:00,
2013-06-22 01:44:00,72.1,66.7,30.18,NNE,25,0.0,0.0,83,0.00,,---,0.00,VWS V14.01,2013-06-22 05:44:00,
2013-06-22 01:47:00,72.1,66.7,30.18,NE,35,0.0,0.0,83,0.00,,---,0.00,VWS V14.01,2013-06-22 05:47:00,
2013-06-22 01:49:00,72.1,66.7,30.15,ENE,65,0.0,0.0,83,0.00,,---,0.00,VWS V14.01,2013-06-22 05:49:00,
2013-06-22 01:52:00,72.1,67.0,30.15,ENE,65,0.0,0.0,84,0.00,,---,0.00,VWS V14.01,2013-06-22 05:52:00,
2013-06-22 01:53:00,72.1,67.0,30.15,ENE,65,0.0,0.0,84,0.00,,---,0.00,VWS V14.01,2013-06-22 05:53:00,
2013-06-22 01:54:00,72.1,67.4,30.15,ENE,65,0.0,0.0,85,0.00,,---,0.00,VWS V14.01,2013-06-22 05:54:00,
2013-06-22 01:57:00,72.3,68.2,30.15,ENE,65,0.0,0.0,87,0.00,,---,0.00,VWS V14.01,2013-06-22 05:57:00,
2013-06-22 01:58:00,72.3,68.2,30.15,ESE,109,2.7,2.7,87,0.00,,---,0.00,VWS V14.01,2013-06-22 05:58:00,
2013-06-22 01:59:00,72.7,69.3,30.15,East,89,4.0,4.0,89,0.00,,---,0.00,VWS V14.01,2013-06-22 05:59:00,
2013-06-22 02:02:00,72.9,69.8,30.15,East,89,4.0,4.0,90,0.00,,---,0.00,VWS V14.01,2013-06-22 06:02:00,
2013-06-22 02:03:00,73.0,69.9,30.15,ESE,106,8.7,8.7,90,0.00,,---,0.00,VWS V14.01,2013-06-22 06:03:00,
2013-06-22 02:04:00,73.2,70.8,30.15,ESE,106,8.7,8.7,92,0.00,,---,0.00,VWS V14.01,2013-06-22 06:04:00,
2013-06-22 02:07:00,73.4,70.9,30.15,ESE,106,8.7,8.7,92,0.00,,---,0.00,VWS V14.01,2013-06-22 06:07:00,
2013-06-22 02:08:00,73.6,71.1,30.15,ESE,106,8.7,8.7,92,0.00,,---,0.00,VWS V14.01,2013-06-22 06:08:00,
2013-06-22 02:09:00,73.8,71.0,30.15,ESE,106,8.7,8.7,91,0.00,,---,0.00,VWS V14.01,2013-06-22 06:09:00,
2013-06-22 02:12:00,73.9,70.5,30.15,East,96,0.0,0.0,89,0.00,,---,0.00,VWS V14.01,2013-06-22 06:12:00,
2013-06-22 02:13:00,73.9,70.2,30.15,ENE,66,0.0,0.0,88,0.00,,---,0.00,VWS V14.01,2013-06-22 06:13:00,
2013-06-22 02:14:00,74.1,70.0,30.15,ENE,66,0.0,0.0,87,0.00,,---,0.00,VWS V14.01,2013-06-22 06:14:00,
2013-06-22 02:17:00,74.1,68.3,30.15,ESE,117,6.3,6.3,82,0.00,,---,0.00,VWS V14.01,2013-06-22 06:17:00,
2013-06-22 02:18:00,74.3,68.4,30.15,ESE,117,6.3,6.3,82,0.00,,---,0.00,VWS V14.01,2013-06-22 06:18:00,
2013-06-22 02:20:00,74.3,67.7,30.15,ESE,117,6.3,6.3,80,0.00,,---,0.00,VWS V14.01,2013-06-22 06:20:00,
2013-06-22 02:22:00,74.5,67.6,30.15,ESE,117,6.3,6.3,79,0.00,,---,0.00,VWS V14.01,2013-06-22 06:22:00,
2013-06-22 02:23:00,74.5,67.6,30.15,ESE,117,6.3,6.3,79,0.00,,---,0.00,VWS V14.01,2013-06-22 06:23:00,
2013-06-22 02:25:00,74.5,66.4,30.15,ENE,65,2.2,6.3,76,0.00,,---,0.00,VWS V14.01,2013-06-22 06:25:00,
2013-06-22 02:27:00,74.7,66.2,30.15,ENE,65,2.2,2.2,75,0.00,,---,0.00,VWS V14.01,2013-06-22 06:27:00,
2013-06-22 02:28:00,74.7,65.8,30.15,ENE,65,2.2,2.2,74,0.00,,---,0.00,VWS V14.01,2013-06-22 06:28:00,
2013-06-22 02:30:00,74.7,65.4,30.15,SE,128,5.8,5.8,73,0.00,,---,0.00,VWS V14.01,2013-06-22 06:30:00,
2013-06-22 02:32:00,74.7,64.6,30.15,SE,128,5.8,5.8,71,0.00,,---,0.00,VWS V14.01,2013-06-22 06:32:00,
2013-06-22 02:33:00,74.7,64.2,30.15,East,100,6.3,6.3,70,0.00,,---,0.00,VWS V14.01,2013-06-22 06:33:00,
2013-06-22 02:35:00,74.3,62.2,30.15,East,100,6.3,6.3,66,0.00,,---,0.00,VWS V14.01,2013-06-22 06:35:00,
2013-06-22 02:37:00,74.1,62.5,30.15,East,100,6.3,6.3,67,0.00,,---,0.00,VWS V14.01,2013-06-22 06:37:00,
2013-06-22 02:38:00,74.1,62.5,30.15,South,182,3.1,6.3,67,0.00,,---,0.00,VWS V14.01,2013-06-22 06:38:00,
2013-06-22 02:39:00,73.9,62.3,30.15,South,182,3.1,3.1,67,0.00,,---,0.00,VWS V14.01,2013-06-22 06:39:00,
2013-06-22 02:40:00,73.8,62.1,30.15,South,182,3.1,3.1,67,0.00,,---,0.00,VWS V14.01,2013-06-22 06:40:00,
2013-06-22 02:42:00,73.6,62.4,30.15,SE,142,4.0,4.0,68,0.00,,---,0.00,VWS V14.01,2013-06-22 06:42:00,
2013-06-22 02:43:00,73.4,62.2,30.15,SE,142,4.0,4.0,68,0.00,,---,0.00,VWS V14.01,2013-06-22 06:43:00,
2013-06-22 02:44:00,73.4,62.2,30.15,ESE,121,3.6,4.0,68,0.00,,---,0.00,VWS V14.01,2013-06-22 06:44:00,
2013-06-22 02:45:00,73.2,62.9,30.15,ESE,121,3.6,3.6,70,0.00,,---,0.00,VWS V14.01,2013-06-22 06:45:00,
2013-06-22 02:47:00,72.9,62.9,30.15,ESE,114,9.2,9.2,71,0.00,,---,0.00,VWS V14.01,2013-06-22 06:47:00,
2013-06-22 02:48:00,72.7,63.1,30.15,ESE,114,9.2,9.2,72,0.00,,---,0.00,VWS V14.01,2013-06-22 06:48:00,
2013-06-22 02:49:00,72.5,63.0,30.15,ESE,114,9.2,9.2,72,0.00,,---,0.00,VWS V14.01,2013-06-22 06:49:00,
2013-06-22 02:50:00,72.3,62.8,30.15,ESE,114,9.2,9.2,72,0.00,,---,0.00,VWS V14.01,2013-06-22 06:50:00,
2013-06-22 02:52:00,72.3,63.2,30.15,SSE,156,5.8,5.8,73,0.00,,---,0.00,VWS V14.01,2013-06-22 06:52:00,
2013-06-22 02:53:00,72.3,63.2,30.15,SSE,156,5.8,5.8,73,0.00,,---,0.00,VWS V14.01,2013-06-22 06:53:00,
2013-06-22 02:54:00,72.1,63.4,30.15,SSE,156,5.8,5.8,74,0.00,,---,0.00,VWS V14.01,2013-06-22 06:54:00,
2013-06-22 02:55:00,72.1,63.8,30.15,SSE,156,5.4,5.8,75,0.00,,---,0.00,VWS V14.01,2013-06-22 06:55:00,
2013-06-22 02:58:00,72.1,64.5,30.15,SSE,156,5.4,5.4,77,0.00,,---,0.00,VWS V14.01,2013-06-22 06:58:00,
2013-06-22 02:59:00,72.1,64.5,30.15,SSE,156,5.4,5.4,77,0.00,,---,0.00,VWS V14.01,2013-06-22 06:59:00,
2013-06-22 03:00:00,72.1,65.3,30.15,SSE,156,5.4,5.4,79,0.00,,---,0.00,VWS V14.01,2013-06-22 07:00:00,
2013-06-22 03:03:00,72.1,65.6,30.15,SSE,156,5.4,5.4,80,0.00,,---,0.00,VWS V14.01,2013-06-22 07:03:00,
2013-06-22 03:04:00,72.1,65.6,30.15,SSE,156,5.4,5.4,80,0.00,,---,0.00,VWS V14.01,2013-06-22 07:04:00,
2013-06-22 03:05:00,72.1,66.0,30.15,East,100,10.1,10.1,81,0.00,,---,0.00,VWS V14.01,2013-06-22 07:05:00,
2013-06-22 03:08:00,72.1,66.3,30.15,East,100,10.1,10.1,82,0.00,,---,0.00,VWS V14.01,2013-06-22 07:08:00,
2013-06-22 03:09:00,72.1,66.3,30.15,SE,133,7.6,10.1,82,0.00,,---,0.00,VWS V14.01,2013-06-22 07:09:00,
2013-06-22 03:10:00,72.1,66.7,30.15,SE,133,7.6,7.6,83,0.00,,---,0.00,VWS V14.01,2013-06-22 07:10:00,
2013-06-22 03:13:00,72.0,66.9,30.15,SE,133,7.6,7.6,84,0.00,,---,0.00,VWS V14.01,2013-06-22 07:13:00,
2013-06-22 03:14:00,72.0,66.9,30.15,SE,133,7.6,7.6,84,0.04,,---,0.04,VWS V14.01,2013-06-22 07:14:00,
2013-06-22 03:15:00,72.0,67.2,30.15,SE,133,7.6,7.6,85,0.04,,---,0.04,VWS V14.01,2013-06-22 07:15:00,
2013-06-22 03:18:00,72.0,67.2,30.15,East,92,10.5,10.5,85,0.04,,---,0.04,VWS V14.01,2013-06-22 07:18:00,
2013-06-22 03:19:00,72.0,67.2,30.15,SSE,160,5.8,10.5,85,0.04,,---,0.04,VWS V14.01,2013-06-22 07:19:00,
2013-06-22 03:20:00,72.0,67.2,30.15,SSE,160,5.8,5.8,85,0.04,,---,0.04,VWS V14.01,2013-06-22 07:20:00,
2013-06-22 03:23:00,72.0,67.6,30.15,SE,142,5.8,5.8,86,0.04,,---,0.04,VWS V14.01,2013-06-22 07:23:00,
2013-06-22 03:24:00,72.0,67.6,30.15,SE,142,5.8,5.8,86,0.04,,---,0.04,VWS V14.01,2013-06-22 07:24:00,
2013-06-22 03:25:00,72.0,67.6,30.15,SE,142,5.8,5.8,86,0.04,,---,0.04,VWS V14.01,2013-06-22 07:25:00,
2013-06-22 03:28:00,72.0,68.2,30.15,SE,142,5.8,5.8,88,0.04,,---,0.04,VWS V14.01,2013-06-22 07:28:00,
2013-06-22 03:29:00,72.0,68.2,30.15,SE,142,5.8,5.8,88,0.04,,---,0.04,VWS V14.01,2013-06-22 07:29:00,
2013-06-22 03:30:00,72.0,68.2,30.15,SE,142,5.8,5.8,88,0.04,,---,0.04,VWS V14.01,2013-06-22 07:30:00,
2013-06-22 03:33:00,72.1,68.7,30.15,SE,141,3.1,3.1,89,0.04,,---,0.04,VWS V14.01,2013-06-22 07:33:00,
2013-06-22 03:34:00,72.1,68.7,30.15,SE,141,3.1,3.1,89,0.04,,---,0.04,VWS V14.01,2013-06-22 07:34:00,
2013-06-22 03:35:00,72.1,68.7,30.15,South,176,4.9,4.9,89,0.04,,---,0.04,VWS V14.01,2013-06-22 07:35:00,
2013-06-22 03:38:00,72.1,69.1,30.15,ESE,118,4.9,4.9,90,0.04,,---,0.04,VWS V14.01,2013-06-22 07:38:00,
2013-06-22 03:39:00,72.1,69.1,30.15,ESE,118,4.9,4.9,90,0.04,,---,0.04,VWS V14.01,2013-06-22 07:39:00,
2013-06-22 03:40:00,72.1,69.1,30.15,ESE,118,4.9,4.9,90,0.04,,---,0.04,VWS V14.01,2013-06-22 07:40:00,
2013-06-22 03:43:00,72.1,69.1,30.15,ESE,118,4.9,4.9,90,0.04,,---,0.04,VWS V14.01,2013-06-22 07:43:00,
2013-06-22 03:44:00,72.1,69.1,30.15,ESE,118,4.9,4.9,90,0.04,,---,0.04,VWS V14.01,2013-06-22 07:44:00,
2013-06-22 03:45:00,72.1,69.1,30.15,SSE,168,8.3,8.3,90,0.04,,---,0.04,VWS V14.01,2013-06-22 07:45:00,
2013-06-22 03:48:00,72.0,68.6,30.15,SSE,167,5.4,8.3,89,0.08,,---,0.08,VWS V14.01,2013-06-22 07:48:00,
2013-06-22 03:49:00,72.0,68.6,30.15,SSE,167,5.4,8.3,89,0.08,,---,0.08,VWS V14.01,2013-06-22 07:49:00,
2013-06-22 03:50:00,72.0,68.6,30.15,SE,146,5.4,5.4,89,0.08,,---,0.08,VWS V14.01,2013-06-22 07:50:00,
2013-06-22 03:53:00,72.0,68.9,30.15,East,95,3.6,3.6,90,0.08,,---,0.08,VWS V14.01,2013-06-22 07:53:00,
2013-06-22 03:54:00,72.0,68.9,30.15,East,95,3.6,3.6,90,0.08,,---,0.08,VWS V14.01,2013-06-22 07:54:00,
2013-06-22 03:55:00,72.0,68.9,30.15,East,95,3.6,3.6,90,0.08,,---,0.08,VWS V14.01,2013-06-22 07:55:00,
2013-06-22 03:58:00,72.0,68.9,30.15,SE,129,4.0,4.0,90,0.08,,---,0.08,VWS V14.01,2013-06-22 07:58:00,
2013-06-22 03:59:00,72.0,68.9,30.15,SE,129,4.0,4.0,90,0.08,,---,0.08,VWS V14.01,2013-06-22 07:59:00,
2013-06-22 04:00:00,72.0,69.2,30.15,SE,125,6.3,6.3,91,0.08,,---,0.08,VWS V14.01,2013-06-22 08:00:00,
2013-06-22 04:04:00,72.0,69.2,30.15,SW,218,3.1,3.1,91,0.08,,---,0.08,VWS V14.01,2013-06-22 08:04:00,
2013-06-22 04:05:00,72.0,69.2,30.15,SW,218,3.1,3.1,91,0.08,,---,0.08,VWS V14.01,2013-06-22 08:05:00,
2013-06-22 04:09:00,72.0,68.9,30.15,SW,218,3.1,3.1,90,0.08,,---,0.08,VWS V14.01,2013-06-22 08:09:00,
2013-06-22 04:10:00,72.0,68.9,30.15,SE,143,4.0,4.0,90,0.08,,---,0.08,VWS V14.01,2013-06-22 08:10:00,
2013-06-22 04:14:00,71.8,68.7,30.15,SE,124,2.7,2.7,90,0.08,,---,0.08,VWS V14.01,2013-06-22 08:14:00,
2013-06-22 04:15:00,71.8,68.7,30.15,SSE,157,6.3,6.3,90,0.04,,---,0.08,VWS V14.01,2013-06-22 08:15:00,
2013-06-22 04:19:00,71.8,69.0,30.15,SSE,157,6.3,6.3,91,0.04,,---,0.08,VWS V14.01,2013-06-22 08:19:00,
2013-06-22 04:21:00,71.8,69.0,30.15,SSE,157,6.3,6.3,91,0.04,,---,0.08,VWS V14.01,2013-06-22 08:21:00,
2013-06-22 04:24:00,71.8,69.0,30.15,East,100,5.4,5.4,91,0.04,,---,0.08,VWS V14.01,2013-06-22 08:24:00,
2013-06-22 04:26:00,71.8,69.0,30.15,SSE,148,5.8,5.8,91,0.04,,---,0.08,VWS V14.01,2013-06-22 08:26:00,
2013-06-22 04:29:00,71.8,69.0,30.15,SE,129,5.4,5.8,91,0.08,,---,0.12,VWS V14.01,2013-06-22 08:29:00,
2013-06-22 04:30:00,71.8,69.0,30.15,SE,129,5.4,5.4,91,0.08,,---,0.12,VWS V14.01,2013-06-22 08:30:00,
2013-06-22 04:31:00,71.8,69.0,30.15,SE,129,5.4,5.4,91,0.08,,---,0.12,VWS V14.01,2013-06-22 08:31:00,
2013-06-22 04:34:00,71.8,69.0,30.15,SE,129,5.4,5.4,91,0.08,,---,0.12,VWS V14.01,2013-06-22 08:34:00,
2013-06-22 04:35:00,71.8,69.0,30.15,SE,129,5.4,5.4,91,0.08,,---,0.12,VWS V14.01,2013-06-22 08:35:00,
2013-06-22 04:36:00,71.8,69.0,30.15,SE,129,5.4,5.4,91,0.08,,---,0.12,VWS V14.01,2013-06-22 08:36:00,
2013-06-22 04:39:00,71.6,68.8,30.15,East,97,2.7,2.7,91,0.08,,---,0.12,VWS V14.01,2013-06-22 08:39:00,
2013-06-22 04:40:00,71.6,68.8,30.15,East,97,2.7,2.7,91,0.08,,---,0.12,VWS V14.01,2013-06-22 08:40:00,
2013-06-22 04:41:00,71.6,68.8,30.15,East,97,2.7,2.7,91,0.08,,---,0.12,VWS V14.01,2013-06-22 08:41:00,
2013-06-22 04:44:00,71.6,68.8,30.15,ESE,122,5.8,5.8,91,0.08,,---,0.12,VWS V14.01,2013-06-22 08:44:00,
2013-06-22 04:45:00,71.6,68.8,30.15,ESE,122,5.8,5.8,91,0.08,,---,0.12,VWS V14.01,2013-06-22 08:45:00,
2013-06-22 04:46:00,71.6,68.8,30.15,South,175,2.2,5.8,91,0.08,,---,0.12,VWS V14.01,2013-06-22 08:46:00,
2013-06-22 04:49:00,71.6,68.8,30.15,South,175,2.2,2.2,91,0.04,,---,0.12,VWS V14.01,2013-06-22 08:49:00,
2013-06-22 04:50:00,71.6,68.8,30.15,South,175,2.2,2.2,91,0.04,,---,0.12,VWS V14.01,2013-06-22 08:50:00,
2013-06-22 04:51:00,71.6,68.8,30.15,SSE,151,3.6,3.6,91,0.04,,---,0.12,VWS V14.01,2013-06-22 08:51:00,
2013-06-22 04:54:00,71.8,69.3,30.15,SSE,151,3.6,3.6,92,0.04,,---,0.12,VWS V14.01,2013-06-22 08:54:00,
2013-06-22 04:55:00,71.8,69.3,30.15,SSE,149,4.0,4.0,92,0.04,,---,0.12,VWS V14.01,2013-06-22 08:55:00,
2013-06-22 04:56:00,72.0,69.8,30.15,SE,144,0.0,0.0,93,0.04,,---,0.12,VWS V14.01,2013-06-22 08:56:00,
2013-06-22 04:59:00,72.1,70.3,30.15,SSE,164,3.1,3.1,94,0.04,,---,0.12,VWS V14.01,2013-06-22 08:59:00,
2013-06-22 05:00:00,72.1,70.3,30.15,SSE,164,3.1,3.1,94,0.04,,---,0.12,VWS V14.01,2013-06-22 09:00:00,
2013-06-22 05:01:00,72.3,70.5,30.15,SSE,164,3.1,3.1,94,0.04,,---,0.12,VWS V14.01,2013-06-22 09:01:00,
2013-06-22 05:04:00,72.3,70.8,30.15,ESE,120,5.4,5.4,95,0.08,,---,0.16,VWS V14.01,2013-06-22 09:04:00,
2013-06-22 05:05:00,72.3,70.8,30.15,ESE,120,5.4,5.4,95,0.08,,---,0.16,VWS V14.01,2013-06-22 09:05:00,
2013-06-22 05:06:00,72.3,70.8,30.15,ESE,120,5.4,5.4,95,0.08,,---,0.16,VWS V14.01,2013-06-22 09:06:00,
2013-06-22 05:09:00,72.5,71.0,30.15,East,100,7.2,7.2,95,0.08,,---,0.16,VWS V14.01,2013-06-22 09:09:00,
2013-06-22 05:10:00,72.5,71.0,30.15,East,100,7.2,7.2,95,0.08,,---,0.16,VWS V14.01,2013-06-22 09:10:00,
2013-06-22 05:11:00,72.5,71.0,30.15,East,100,7.2,7.2,95,0.08,,---,0.16,VWS V14.01,2013-06-22 09:11:00,
2013-06-22 05:14:00,72.5,71.3,30.15,East,100,7.2,7.2,96,0.08,,---,0.16,VWS V14.01,2013-06-22 09:14:00,
2013-06-22 05:15:00,72.5,71.3,30.15,East,100,7.2,7.2,96,0.08,,---,0.16,VWS V14.01,2013-06-22 09:15:00,
2013-06-22 05:16:00,72.5,71.3,30.15,East,100,7.2,7.2,96,0.08,,---,0.16,VWS V14.01,2013-06-22 09:16:00,
2013-06-22 05:19:00,72.5,71.3,30.15,ESE,117,3.1,3.1,96,0.08,,---,0.16,VWS V14.01,2013-06-22 09:19:00,
2013-06-22 05:20:00,72.5,71.3,30.15,ESE,117,3.1,3.1,96,0.08,,---,0.16,VWS V14.01,2013-06-22 09:20:00,
2013-06-22 05:21:00,72.5,71.3,30.15,ESE,117,3.1,3.1,96,0.08,,---,0.16,VWS V14.01,2013-06-22 09:21:00,
2013-06-22 05:24:00,72.5,71.3,30.15,SE,124,7.6,7.6,96,0.08,,---,0.16,VWS V14.01,2013-06-22 09:24:00,
2013-06-22 05:25:00,72.5,71.3,30.15,SE,124,7.6,7.6,96,0.08,,---,0.16,VWS V14.01,2013-06-22 09:25:00,
2013-06-22 05:26:00,72.5,71.3,30.15,SE,124,7.6,7.6,96,0.04,,---,0.16,VWS V14.01,2013-06-22 09:26:00,
2013-06-22 05:30:00,72.5,71.0,30.15,SSE,152,4.9,4.9,95,0.04,,---,0.16,VWS V14.01,2013-06-22 09:30:00,
2013-06-22 05:31:00,72.3,70.8,30.15,SSE,162,7.6,7.6,95,0.04,,---,0.16,VWS V14.01,2013-06-22 09:31:00,
2013-06-22 05:35:00,72.1,70.3,30.15,SSE,162,7.6,7.6,94,0.08,,---,0.20,VWS V14.01,2013-06-22 09:35:00,
2013-06-22 05:36:00,72.1,70.3,30.15,SSE,156,5.4,5.4,94,0.08,,---,0.20,VWS V14.01,2013-06-22 09:36:00,
2013-06-22 05:40:00,72.0,70.1,30.15,SSE,156,5.4,5.4,94,0.08,,---,0.20,VWS V14.01,2013-06-22 09:40:00,
2013-06-22 05:41:00,72.0,70.1,30.15,SSE,156,5.4,5.4,94,0.08,,---,0.20,VWS V14.01,2013-06-22 09:41:00,
2013-06-22 05:42:00,72.0,70.1,30.15,SSE,156,5.4,5.4,94,0.08,,---,0.20,VWS V14.01,2013-06-22 09:42:00,
2013-06-22 05:45:00,72.0,70.4,30.15,South,189,5.4,5.4,95,0.08,,---,0.20,VWS V14.01,2013-06-22 09:45:00,
2013-06-22 05:46:00,72.0,70.4,30.15,South,189,5.4,5.4,95,0.08,,---,0.20,VWS V14.01,2013-06-22 09:46:00,
2013-06-22 05:47:00,72.0,70.4,30.15,South,189,5.4,5.4,95,0.08,,---,0.20,VWS V14.01,2013-06-22 09:47:00,
2013-06-22 05:50:00,72.1,70.6,30.15,South,173,5.4,6.3,95,0.08,,---,0.20,VWS V14.01,2013-06-22 09:50:00,
2013-06-22 05:51:00,72.1,70.6,30.15,South,173,5.4,5.4,95,0.08,,---,0.20,VWS V14.01,2013-06-22 09:51:00,
2013-06-22 05:52:00,72.1,70.6,30.15,South,173,5.4,5.4,95,0.08,,---,0.20,VWS V14.01,2013-06-22 09:52:00,
2013-06-22 05:55:00,72.0,70.4,30.15,South,173,5.4,5.4,95,0.08,,---,0.20,VWS V14.01,2013-06-22 09:55:00,
2013-06-22 05:56:00,72.0,70.4,30.15,South,173,5.4,5.4,95,0.08,,---,0.20,VWS V14.01,2013-06-22 09:56:00,
2013-06-22 05:57:00,72.0,70.4,30.15,South,173,5.4,5.4,95,0.08,,---,0.20,VWS V14.01,2013-06-22 09:57:00,
2013-06-22 06:00:00,71.8,70.0,30.15,SSE,155,4.9,4.9,94,0.16,,---,0.28,VWS V14.01,2013-06-22 10:00:00,
2013-06-22 06:01:00,71.6,69.8,30.15,South,185,3.1,3.1,94,0.16,,---,0.28,VWS V14.01,2013-06-22 10:01:00,
2013-06-22 06:02:00,71.6,69.8,30.15,South,182,2.7,3.1,94,0.16,,---,0.28,VWS V14.01,2013-06-22 10:02:00,
2013-06-22 06:05:00,71.6,69.8,30.15,South,178,0.0,0.0,94,0.12,,---,0.28,VWS V14.01,2013-06-22 10:05:00,
2013-06-22 06:06:00,71.6,69.8,30.15,South,178,0.0,0.0,94,0.12,,---,0.28,VWS V14.01,2013-06-22 10:06:00,
2013-06-22 06:07:00,71.6,69.8,30.15,South,178,0.0,0.0,94,0.12,,---,0.28,VWS V14.01,2013-06-22 10:07:00,
2013-06-22 06:10:00,71.6,69.8,30.15,South,178,0.0,0.0,94,0.16,,---,0.31,VWS V14.01,2013-06-22 10:10:00,
2013-06-22 06:11:00,71.6,69.8,30.15,SE,140,3.6,3.6,94,0.16,,---,0.31,VWS V14.01,2013-06-22 10:11:00,
2013-06-22 06:12:00,71.6,69.8,30.15,SE,140,3.6,3.6,94,0.16,,---,0.31,VWS V14.01,2013-06-22 10:12:00,
2013-06-22 06:15:00,71.6,70.1,30.15,SE,132,4.0,4.0,95,0.16,,---,0.31,VWS V14.01,2013-06-22 10:15:00,
2013-06-22 06:16:00,71.6,70.1,30.15,SE,132,4.0,4.0,95,0.16,,---,0.31,VWS V14.01,2013-06-22 10:16:00,
2013-06-22 06:17:00,71.6,70.1,30.15,SE,132,4.0,4.0,95,0.16,,---,0.31,VWS V14.01,2013-06-22 10:17:00,
2013-06-22 06:20:00,71.8,70.6,30.15,SE,132,4.0,4.0,96,0.20,,---,0.35,VWS V14.01,2013-06-22 10:20:00,
2013-06-22 06:21:00,71.8,70.6,30.15,SE,132,4.0,4.0,96,0.20,,---,0.35,VWS V14.01,2013-06-22 10:21:00,
2013-06-22 06:22:00,71.8,70.6,30.15,SE,132,4.0,4.0,96,0.20,,---,0.35,VWS V14.01,2013-06-22 10:22:00,
2013-06-22 06:25:00,71.4,69.9,30.15,SW,218,3.6,3.6,95,0.20,,---,0.35,VWS V14.01,2013-06-22 10:25:00,
2013-06-22 06:26:00,71.2,69.4,30.15,SW,218,3.6,3.6,94,0.20,,---,0.35,VWS V14.01,2013-06-22 10:26:00,
2013-06-22 06:27:00,71.2,69.4,30.15,SW,218,3.6,3.6,94,0.20,,---,0.35,VWS V14.01,2013-06-22 10:27:00,
2013-06-22 06:30:00,70.9,69.1,30.15,South,175,3.6,3.6,94,0.20,,---,0.35,VWS V14.01,2013-06-22 10:30:00,
2013-06-22 06:31:00,70.9,69.1,30.15,South,175,3.6,3.6,94,0.24,,---,0.39,VWS V14.01,2013-06-22 10:31:00,
2013-06-22 06:32:00,70.7,68.6,30.15,South,175,3.6,3.6,93,0.20,,---,0.39,VWS V14.01,2013-06-22 10:32:00,
2013-06-22 06:35:00,70.5,68.4,30.15,SSE,161,0.0,0.0,93,0.20,,---,0.39,VWS V14.01,2013-06-22 10:35:00,
2013-06-22 06:36:00,70.5,68.4,30.15,SSE,151,3.6,3.6,93,0.20,,---,0.39,VWS V14.01,2013-06-22 10:36:00,
2013-06-22 06:37:00,70.5,68.4,30.15,South,172,4.0,4.0,93,0.20,,---,0.39,VWS V14.01,2013-06-22 10:37:00,
2013-06-22 06:40:00,70.3,68.5,30.15,South,172,4.0,4.0,94,0.20,,---,0.39,VWS V14.01,2013-06-22 10:40:00,
2013-06-22 06:41:00,70.3,68.5,30.15,South,172,4.0,4.0,94,0.20,,---,0.39,VWS V14.01,2013-06-22 10:41:00,
2013-06-22 06:42:00,70.3,68.5,30.15,SSE,168,0.0,0.0,94,0.20,,---,0.39,VWS V14.01,2013-06-22 10:42:00,
2013-06-22 06:45:00,70.5,69.0,30.15,SSE,154,0.0,0.0,95,0.20,,---,0.39,VWS V14.01,2013-06-22 10:45:00,
2013-06-22 06:46:00,70.5,69.0,30.15,SSE,154,0.0,0.0,95,0.20,,---,0.39,VWS V14.01,2013-06-22 10:46:00,
2013-06-22 06:47:00,70.5,69.0,30.15,SSE,154,0.0,0.0,95,0.20,,---,0.39,VWS V14.01,2013-06-22 10:47:00,
2013-06-22 06:50:00,70.7,69.5,30.15,SE,144,2.7,2.7,96,0.20,,---,0.39,VWS V14.01,2013-06-22 10:50:00,
2013-06-22 06:51:00,70.7,69.5,30.15,SE,144,2.7,2.7,96,0.20,,---,0.39,VWS V14.01,2013-06-22 10:51:00,
2013-06-22 06:53:00,70.9,69.7,30.15,SE,144,2.7,2.7,96,0.20,,---,0.39,VWS V14.01,2013-06-22 10:53:00,
2013-06-22 06:55:00,71.1,70.2,30.15,SSE,154,4.9,4.9,97,0.20,,---,0.39,VWS V14.01,2013-06-22 10:55:00,
2013-06-22 06:56:00,71.1,70.2,30.15,SSE,154,4.9,4.9,97,0.20,,---,0.39,VWS V14.01,2013-06-22 10:56:00,
2013-06-22 06:58:00,71.1,70.2,30.15,SSE,154,4.9,4.9,97,0.20,,---,0.39,VWS V14.01,2013-06-22 10:58:00,
2013-06-22 07:00:00,71.1,69.9,30.15,SSE,154,4.9,4.9,96,0.12,,---,0.39,VWS V14.01,2013-06-22 11:00:00,
2013-06-22 07:01:00,71.1,69.9,30.15,SSE,154,4.9,4.9,96,0.12,,---,0.39,VWS V14.01,2013-06-22 11:01:00,
2013-06-22 07:02:00,71.1,69.9,30.15,SSE,154,4.9,4.9,96,0.12,,---,0.39,VWS V14.01,2013-06-22 11:02:00,
2013-06-22 07:03:00,71.1,69.9,30.15,SSE,154,4.9,4.9,96,0.12,,---,0.39,VWS V14.01,2013-06-22 11:03:00,
2013-06-22 07:06:00,71.1,69.9,30.15,South,170,2.2,2.2,96,0.12,,---,0.39,VWS V14.01,2013-06-22 11:06:00,
2013-06-22 07:07:00,71.1,69.9,30.18,SE,128,2.7,2.7,96,0.12,,---,0.39,VWS V14.01,2013-06-22 11:07:00,
2013-06-22 07:08:00,70.9,69.4,30.18,SE,128,2.7,2.7,95,0.12,,---,0.39,VWS V14.01,2013-06-22 11:08:00,
2013-06-22 07:11:00,70.9,69.4,30.18,SSE,162,4.9,4.9,95,0.08,,---,0.39,VWS V14.01,2013-06-22 11:11:00,
2013-06-22 07:12:00,70.7,68.9,30.18,SSE,162,4.9,4.9,94,0.08,,---,0.39,VWS V14.01,2013-06-22 11:12:00,
2013-06-22 07:13:00,70.7,68.9,30.18,SSE,162,4.9,4.9,94,0.08,,---,0.39,VWS V14.01,2013-06-22 11:13:00,
2013-06-22 07:16:00,70.5,68.7,30.18,SSE,162,4.9,4.9,94,0.08,,---,0.39,VWS V14.01,2013-06-22 11:16:00,
2013-06-22 07:17:00,70.5,68.7,30.18,SSE,164,0.0,4.9,94,0.08,,---,0.39,VWS V14.01,2013-06-22 11:17:00,
2013-06-22 07:18:00,70.5,68.7,30.18,SSE,149,0.0,0.0,94,0.08,,---,0.39,VWS V14.01,2013-06-22 11:18:00,
2013-06-22 07:21:00,70.5,68.7,30.18,SSE,164,2.2,2.2,94,0.04,,---,0.39,VWS V14.01,2013-06-22 11:21:00,
2013-06-22 07:22:00,70.3,68.5,30.18,SSE,164,2.2,2.2,94,0.04,,---,0.39,VWS V14.01,2013-06-22 11:22:00,
2013-06-22 07:23:00,70.3,68.5,30.18,South,191,0.0,2.2,94,0.04,,---,0.39,VWS V14.01,2013-06-22 11:23:00,
2013-06-22 07:26:00,70.3,68.8,30.18,South,191,0.0,0.0,95,0.08,,---,0.43,VWS V14.01,2013-06-22 11:26:00,
2013-06-22 07:27:00,70.3,68.8,30.18,South,191,0.0,0.0,95,0.08,,---,0.43,VWS V14.01,2013-06-22 11:27:00,
2013-06-22 07:28:00,70.3,68.8,30.18,South,191,0.0,0.0,95,0.08,,---,0.43,VWS V14.01,2013-06-22 11:28:00,
2013-06-22 07:31:00,70.5,69.0,30.18,SE,126,0.0,0.0,95,0.08,,---,0.43,VWS V14.01,2013-06-22 11:31:00,
2013-06-22 07:32:00,70.5,69.0,30.18,SE,126,0.0,0.0,95,0.04,,---,0.43,VWS V14.01,2013-06-22 11:32:00,
2013-06-22 07:33:00,70.5,69.0,30.18,SE,126,0.0,0.0,95,0.04,,---,0.43,VWS V14.01,2013-06-22 11:33:00,
2013-06-22 07:36:00,70.5,69.0,30.18,East,101,3.6,3.6,95,0.04,,---,0.43,VWS V14.01,2013-06-22 11:36:00,
2013-06-22 07:37:00,70.5,69.0,30.18,East,101,3.6,3.6,95,0.04,,---,0.43,VWS V14.01,2013-06-22 11:37:00,
2013-06-22 07:38:00,70.5,69.0,30.18,East,101,3.6,3.6,95,0.04,,---,0.43,VWS V14.01,2013-06-22 11:38:00,
2013-06-22 07:41:00,70.5,69.0,30.18,East,97,4.0,4.0,95,0.04,,---,0.43,VWS V14.01,2013-06-22 11:41:00,
2013-06-22 07:42:00,70.5,69.0,30.18,SE,130,4.5,4.5,95,0.04,,---,0.43,VWS V14.01,2013-06-22 11:42:00,
2013-06-22 07:43:00,70.5,69.3,30.18,SE,130,4.5,4.5,96,0.04,,---,0.43,VWS V14.01,2013-06-22 11:43:00,
2013-06-22 07:46:00,70.7,69.5,30.18,ESE,119,0.0,0.0,96,0.04,,---,0.43,VWS V14.01,2013-06-22 11:46:00,
2013-06-22 07:47:00,70.7,69.5,30.18,ESE,119,0.0,0.0,96,0.04,,---,0.43,VWS V14.01,2013-06-22 11:47:00,
2013-06-22 07:48:00,70.7,69.5,30.18,SE,131,7.6,7.6,96,0.04,,---,0.43,VWS V14.01,2013-06-22 11:48:00,
2013-06-22 07:51:00,70.9,69.7,30.18,SE,129,2.2,2.2,96,0.04,,---,0.43,VWS V14.01,2013-06-22 11:51:00,
2013-06-22 07:52:00,70.9,69.7,30.18,SE,129,2.2,2.2,96,0.04,,---,0.43,VWS V14.01,2013-06-22 11:52:00,
2013-06-22 07:53:00,70.9,69.7,30.18,SE,142,0.0,2.2,96,0.04,,---,0.43,VWS V14.01,2013-06-22 11:53:00,
2013-06-22 07:57:00,70.9,70.0,30.18,East,90,2.2,4.0,97,0.04,,---,0.43,VWS V14.01,2013-06-22 11:57:00,
2013-06-22 07:58:00,71.1,70.2,30.18,ESE,120,2.7,4.9,97,0.04,,---,0.43,VWS V14.01,2013-06-22 11:58:00,
2013-06-22 08:02:00,71.1,70.2,30.18,ESE,122,2.7,2.7,97,0.04,,---,0.43,VWS V14.01,2013-06-22 12:02:00,
2013-06-22 08:03:00,71.2,70.3,30.18,East,90,0.0,2.7,97,0.04,,---,0.43,VWS V14.01,2013-06-22 12:03:00,
2013-06-22 08:07:00,71.4,70.8,30.18,ESE,105,0.0,0.0,98,0.04,,---,0.43,VWS V14.01,2013-06-22 12:07:00,
2013-06-22 08:08:00,71.4,70.8,30.18,ESE,117,3.1,3.1,98,0.04,,---,0.43,VWS V14.01,2013-06-22 12:08:00,
2013-06-22 08:12:00,71.6,70.7,30.18,ENE,66,0.0,0.0,97,0.04,,---,0.43,VWS V14.01,2013-06-22 12:12:00,
2013-06-22 08:13:00,71.6,70.7,30.18,South,169,3.6,3.6,97,0.04,,---,0.43,VWS V14.01,2013-06-22 12:13:00,
2013-06-22 08:17:00,72.0,71.4,30.18,ESE,110,4.9,4.9,98,0.04,,---,0.43,VWS V14.01,2013-06-22 12:17:00,
2013-06-22 08:18:00,72.0,71.4,30.18,ESE,110,4.9,4.9,98,0.04,,---,0.43,VWS V14.01,2013-06-22 12:18:00,
2013-06-22 08:22:00,72.1,71.6,30.18,ESE,123,4.5,4.5,98,0.04,,---,0.43,VWS V14.01,2013-06-22 12:22:00,
2013-06-22 08:23:00,72.1,71.6,30.18,SE,144,4.9,4.9,98,0.04,,---,0.43,VWS V14.01,2013-06-22 12:23:00,
2013-06-22 08:27:00,72.3,71.7,30.18,SE,124,4.9,4.9,98,0.00,,---,0.43,VWS V14.01,2013-06-22 12:27:00,
2013-06-22 08:28:00,72.3,71.7,30.18,SE,141,4.0,4.0,98,0.00,,---,0.43,VWS V14.01,2013-06-22 12:28:00,
2013-06-22 08:32:00,72.5,71.9,30.18,ESE,104,3.6,5.4,98,0.00,,---,0.43,VWS V14.01,2013-06-22 12:32:00,
2013-06-22 08:33:00,72.5,71.9,30.18,ESE,111,2.7,4.0,98,0.00,,---,0.43,VWS V14.01,2013-06-22 12:33:00,
2013-06-22 08:34:00,72.7,72.1,30.18,East,90,4.9,6.3,98,0.00,,---,0.43,VWS V14.01,2013-06-22 12:34:00,
2013-06-22 08:37:00,72.7,72.1,30.18,SE,127,5.8,8.1,98,0.00,,---,0.43,VWS V14.01,2013-06-22 12:37:00,
2013-06-22 08:38:00,72.9,72.3,30.18,SE,126,8.1,8.1,98,0.00,,---,0.43,VWS V14.01,2013-06-22 12:38:00,
2013-06-22 08:39:00,72.9,72.3,30.18,SE,142,4.0,4.9,98,0.00,,---,0.43,VWS V14.01,2013-06-22 12:39:00,
2013-06-22 08:42:00,73.0,72.4,30.18,East,91,3.1,3.1,98,0.00,,---,0.43,VWS V14.01,2013-06-22 12:42:00,
2013-06-22 08:43:00,73.0,72.4,30.18,East,83,5.8,5.8,98,0.00,,---,0.43,VWS V14.01,2013-06-22 12:43:00,
2013-06-22 08:44:00,73.0,72.1,30.18,SE,139,5.4,5.8,97,0.00,,---,0.43,VWS V14.01,2013-06-22 12:44:00,
2013-06-22 08:47:00,73.0,72.1,30.18,ESE,122,4.9,4.9,97,0.00,,---,0.43,VWS V14.01,2013-06-22 12:47:00,
2013-06-22 08:48:00,73.0,72.1,30.18,South,178,8.7,8.7,97,0.00,,---,0.43,VWS V14.01,2013-06-22 12:48:00,
2013-06-22 08:49:00,73.0,71.5,30.18,SSE,156,3.6,7.6,95,0.00,,---,0.43,VWS V14.01,2013-06-22 12:49:00,
2013-06-22 08:52:00,73.0,71.2,30.18,SE,131,10.5,10.5,94,0.00,,---,0.43,VWS V14.01,2013-06-22 12:52:00,
2013-06-22 08:53:00,73.0,71.2,30.18,SE,146,4.0,4.0,94,0.00,,---,0.43,VWS V14.01,2013-06-22 12:53:00,
2013-06-22 08:55:00,73.0,70.6,30.18,SE,139,3.6,8.1,92,0.00,,---,0.43,VWS V14.01,2013-06-22 12:55:00,
2013-06-22 08:57:00,73.2,70.8,30.18,SE,141,6.3,6.3,92,0.00,,---,0.43,VWS V14.01,2013-06-22 12:57:00,
2013-06-22 08:58:00,73.4,70.6,30.18,SE,134,6.3,6.3,91,0.00,,---,0.43,VWS V14.01,2013-06-22 12:58:00,
2013-06-22 09:00:00,73.4,70.6,30.18,SSE,147,5.8,6.3,91,0.00,,---,0.43,VWS V14.01,2013-06-22 13:00:00,
2013-06-22 09:02:00,73.4,70.0,30.18,ESE,110,8.3,8.3,89,0.00,,---,0.43,VWS V14.01,2013-06-22 13:02:00,
2013-06-22 09:03:00,73.4,70.0,30.18,South,185,4.0,8.3,89,0.00,,---,0.43,VWS V14.01,2013-06-22 13:03:00,
2013-06-22 09:05:00,73.4,70.0,30.18,SSE,156,7.6,7.6,89,0.00,,---,0.43,VWS V14.01,2013-06-22 13:05:00,
2013-06-22 09:07:00,73.4,69.6,30.18,SSW,203,2.7,2.7,88,0.00,,---,0.43,VWS V14.01,2013-06-22 13:07:00,
2013-06-22 09:08:00,73.4,69.6,30.18,ESE,114,7.6,7.6,88,0.00,,---,0.43,VWS V14.01,2013-06-22 13:08:00,
2013-06-22 09:09:00,73.4,69.3,30.18,SSE,159,2.7,7.6,87,0.00,,---,0.43,VWS V14.01,2013-06-22 13:09:00,
2013-06-22 09:10:00,73.4,69.0,30.18,South,183,6.3,6.3,86,0.00,,---,0.43,VWS V14.01,2013-06-22 13:10:00,
2013-06-22 09:12:00,73.2,69.1,30.18,South,183,0.0,5.4,87,0.00,,---,0.43,VWS V14.01,2013-06-22 13:12:00,
2013-06-22 09:13:00,73.2,68.8,30.18,South,183,0.0,0.0,86,0.00,,---,0.43,VWS V14.01,2013-06-22 13:13:00,
2013-06-22 09:14:00,73.2,68.8,30.18,South,171,5.4,5.4,86,0.00,,---,0.43,VWS V14.01,2013-06-22 13:14:00,
2013-06-22 09:15:00,73.2,68.8,30.18,South,179,0.0,0.0,86,0.00,,---,0.43,VWS V14.01,2013-06-22 13:15:00,
2013-06-22 09:17:00,73.0,68.6,30.18,SE,137,3.1,3.6,86,0.00,,---,0.43,VWS V14.01,2013-06-22 13:17:00,
2013-06-22 09:18:00,73.0,68.6,30.18,SE,132,8.1,8.1,86,0.00,,---,0.43,VWS V14.01,2013-06-22 13:18:00,
2013-06-22 09:19:00,73.0,68.3,30.18,SSE,148,7.6,10.1,85,0.00,,---,0.43,VWS V14.01,2013-06-22 13:19:00,
2013-06-22 09:20:00,73.0,68.3,30.18,SSE,155,4.0,7.6,85,0.00,,---,0.43,VWS V14.01,2013-06-22 13:20:00,
2013-06-22 09:22:00,73.0,68.3,30.18,East,100,5.4,7.6,85,0.00,,---,0.43,VWS V14.01,2013-06-22 13:22:00,
2013-06-22 09:23:00,73.0,68.3,30.18,SE,128,6.3,6.3,85,0.00,,---,0.43,VWS V14.01,2013-06-22 13:23:00,
2013-06-22 09:24:00,73.0,67.9,30.18,South,189,6.3,6.3,84,0.00,,---,0.43,VWS V14.01,2013-06-22 13:24:00,
2013-06-22 09:25:00,73.2,68.1,30.18,SSE,150,3.1,3.1,84,0.00,,---,0.43,VWS V14.01,2013-06-22 13:25:00,
2013-06-22 09:27:00,73.2,68.1,30.18,SSE,154,10.5,10.5,84,0.00,,---,0.43,VWS V14.01,2013-06-22 13:27:00,
2013-06-22 09:28:00,73.2,68.1,30.18,SE,138,3.1,3.1,84,0.00,,---,0.43,VWS V14.01,2013-06-22 13:28:00,
2013-06-22 09:29:00,73.2,68.1,30.18,SE,138,6.3,6.3,84,0.00,,---,0.43,VWS V14.01,2013-06-22 13:29:00,
2013-06-22 09:30:00,73.2,68.1,30.18,SSW,199,6.3,6.3,84,0.00,,---,0.43,VWS V14.01,2013-06-22 13:30:00,
2013-06-22 09:32:00,73.2,67.8,30.18,South,172,4.0,4.0,83,0.00,,---,0.43,VWS V14.01,2013-06-22 13:32:00,
2013-06-22 09:33:00,73.2,67.8,30.18,SE,146,3.1,3.1,83,0.00,,---,0.43,VWS V14.01,2013-06-22 13:33:00,
2013-06-22 09:34:00,73.2,67.8,30.18,SSE,166,3.6,3.6,83,0.00,,---,0.00,VWS V14.01,2013-06-22 13:34:00,
2013-06-22 09:35:00,73.2,67.8,30.18,South,174,3.1,3.1,83,0.00,,---,0.43,VWS V14.01,2013-06-22 13:35:00,
2013-06-22 09:37:00,73.4,67.9,30.21,SSE,147,4.9,5.8,83,0.00,,---,0.43,VWS V14.01,2013-06-22 13:37:00,
2013-06-22 09:38:00,73.4,67.9,30.21,SSE,155,3.1,5.8,83,0.00,,---,0.43,VWS V14.01,2013-06-22 13:38:00,
2013-06-22 09:39:00,73.4,67.9,30.21,South,169,3.6,3.6,83,0.00,,---,0.43,VWS V14.01,2013-06-22 13:39:00,
2013-06-22 09:40:00,73.4,67.9,30.21,SSE,151,3.6,3.6,83,0.00,,---,0.43,VWS V14.01,2013-06-22 13:40:00,
2013-06-22 09:43:00,73.6,67.8,30.21,South,179,5.8,5.8,82,0.00,,---,0.43,VWS V14.01,2013-06-22 13:43:00,
2013-06-22 09:44:00,73.6,67.8,30.21,ESE,110,5.4,8.1,82,0.00,,---,0.43,VWS V14.01,2013-06-22 13:44:00,
2013-06-22 09:45:00,73.6,67.8,30.21,SE,141,4.0,6.3,82,0.00,,---,0.43,VWS V14.01,2013-06-22 13:45:00,
2013-06-22 09:48:00,73.8,67.6,30.21,SE,144,3.6,6.3,81,0.00,,---,0.43,VWS V14.01,2013-06-22 13:48:00,
2013-06-22 09:49:00,73.8,67.6,30.21,SE,127,8.3,8.3,81,0.00,,---,0.43,VWS V14.01,2013-06-22 13:49:00,
2013-06-22 09:50:00,73.9,67.8,30.21,East,98,5.8,5.8,81,0.00,,---,0.43,VWS V14.01,2013-06-22 13:50:00,
2013-06-22 09:53:00,73.9,67.4,30.21,SSE,155,2.7,2.7,80,0.00,,---,0.43,VWS V14.01,2013-06-22 13:53:00,
2013-06-22 09:54:00,73.9,67.4,30.21,SE,134,4.0,4.0,80,0.00,,---,0.43,VWS V14.01,2013-06-22 13:54:00,
2013-06-22 09:55:00,74.1,67.6,30.21,SE,129,3.6,3.6,80,0.00,,---,0.43,VWS V14.01,2013-06-22 13:55:00,
2013-06-22 09:58:00,74.1,67.2,30.18,ESE,115,8.7,10.1,79,0.00,,---,0.43,VWS V14.01,2013-06-22 13:58:00,
2013-06-22 09:59:00,74.1,66.8,30.18,SSE,166,5.8,8.7,78,0.00,,---,0.43,VWS V14.01,2013-06-22 13:59:00,
2013-06-22 10:00:00,74.3,67.0,30.18,South,169,6.3,6.3,78,0.00,,---,0.43,VWS V14.01,2013-06-22 14:00:00,
2013-06-22 10:03:00,74.3,67.4,30.18,SE,144,5.4,5.8,79,0.00,,---,0.43,VWS V14.01,2013-06-22 14:03:00,
2013-06-22 10:04:00,74.5,67.6,30.18,SSE,151,4.9,5.4,79,0.00,,---,0.43,VWS V14.01,2013-06-22 14:04:00,
2013-06-22 10:05:00,74.7,67.7,30.18,SE,142,3.1,4.9,79,0.00,,---,0.43,VWS V14.01,2013-06-22 14:05:00,
2013-06-22 10:08:00,74.8,67.9,30.18,SSE,149,4.9,4.9,79,0.00,,---,0.43,VWS V14.01,2013-06-22 14:08:00,
2013-06-22 10:09:00,74.8,67.9,30.18,SSE,153,4.5,4.5,79,0.00,,---,0.43,VWS V14.01,2013-06-22 14:09:00,
2013-06-22 10:10:00,75.0,68.1,30.18,SSE,165,5.4,7.6,79,0.00,,---,0.43,VWS V14.01,2013-06-22 14:10:00,
2013-06-22 10:13:00,75.0,68.1,30.18,South,172,3.1,4.9,79,0.00,,---,0.43,VWS V14.01,2013-06-22 14:13:00,
2013-06-22 10:14:00,75.0,68.1,30.18,South,172,3.1,3.1,79,0.00,,---,0.43,VWS V14.01,2013-06-22 14:14:00,
2013-06-22 10:16:00,75.2,67.9,30.18,South,172,3.1,3.1,78,0.00,,---,0.43,VWS V14.01,2013-06-22 14:16:00,
2013-06-22 10:18:00,75.2,67.9,30.18,SSE,148,5.4,5.4,78,0.00,,---,0.43,VWS V14.01,2013-06-22 14:18:00,
2013-06-22 10:19:00,75.0,67.3,30.18,SSE,148,5.4,5.4,77,0.00,,---,0.43,VWS V14.01,2013-06-22 14:19:00,
2013-06-22 10:20:00,75.2,67.5,30.18,SSE,148,5.4,5.4,77,0.00,,---,0.43,VWS V14.01,2013-06-22 14:20:00,
2013-06-22 10:21:00,75.2,67.5,30.18,SSE,157,3.6,5.4,77,0.00,,---,0.43,VWS V14.01,2013-06-22 14:21:00,
2013-06-22 10:23:00,75.0,66.6,30.18,SSE,157,3.6,3.6,75,0.00,,---,0.43,VWS V14.01,2013-06-22 14:23:00,
2013-06-22 10:24:00,75.0,66.6,30.18,SSE,157,3.6,3.6,75,0.00,,---,0.43,VWS V14.01,2013-06-22 14:24:00,
2013-06-22 10:25:00,75.2,66.3,30.18,ESE,118,4.9,4.9,74,0.00,,---,0.43,VWS V14.01,2013-06-22 14:25:00,
2013-06-22 10:26:00,75.2,66.0,30.18,SSE,147,5.4,5.8,73,0.00,,---,0.43,VWS V14.01,2013-06-22 14:26:00,
2013-06-22 10:28:00,75.2,66.0,30.18,SSE,159,6.7,6.7,73,0.00,,---,0.43,VWS V14.01,2013-06-22 14:28:00,
2013-06-22 10:29:00,75.2,65.6,30.18,SSE,161,5.4,7.6,72,0.00,,---,0.43,VWS V14.01,2013-06-22 14:29:00,
2013-06-22 10:30:00,75.4,66.1,30.18,SSE,167,5.4,5.4,73,0.00,,---,0.43,VWS V14.01,2013-06-22 14:30:00,
2013-06-22 10:31:00,75.4,66.1,30.18,SE,146,4.9,4.9,73,0.00,,---,0.43,VWS V14.01,2013-06-22 14:31:00,
2013-06-22 10:33:00,75.6,66.3,30.18,SSE,161,3.1,3.1,73,0.00,,---,0.43,VWS V14.01,2013-06-22 14:33:00,
2013-06-22 10:34:00,75.6,65.9,30.18,SE,142,4.0,7.6,72,0.00,,---,0.43,VWS V14.01,2013-06-22 14:34:00,
2013-06-22 10:35:00,75.6,65.9,30.18,SSE,154,5.8,7.6,72,0.00,,---,0.43,VWS V14.01,2013-06-22 14:35:00,
2013-06-22 10:36:00,75.4,65.7,30.18,SSE,164,5.8,5.8,72,0.00,,---,0.43,VWS V14.01,2013-06-22 14:36:00,
2013-06-22 10:38:00,75.2,65.2,30.18,SSW,197,5.8,5.8,71,0.00,,---,0.43,VWS V14.01,2013-06-22 14:38:00,
2013-06-22 10:39:00,75.2,64.8,30.18,SE,137,4.0,7.6,70,0.00,,---,0.43,VWS V14.01,2013-06-22 14:39:00,
2013-06-22 10:40:00,75.2,64.8,30.18,SE,139,10.5,10.5,70,0.00,,---,0.43,VWS V14.01,2013-06-22 14:40:00,
2013-06-22 10:41:00,75.0,65.0,30.18,East,81,12.3,12.3,71,0.00,,---,0.43,VWS V14.01,2013-06-22 14:41:00,
2013-06-22 10:43:00,75.0,64.2,30.18,South,169,8.3,8.3,69,0.00,,---,0.43,VWS V14.01,2013-06-22 14:43:00,
2013-06-22 10:45:00,75.0,64.2,30.18,SSE,159,3.6,4.9,69,0.00,,---,0.43,VWS V14.01,2013-06-22 14:45:00,
2013-06-22 10:46:00,75.2,63.9,30.18,SSE,159,5.4,5.4,68,0.00,,---,0.43,VWS V14.01,2013-06-22 14:46:00,
2013-06-22 10:47:00,75.2,64.3,30.18,SSE,152,5.4,5.4,69,0.00,,---,0.43,VWS V14.01,2013-06-22 14:47:00,
2013-06-22 10:48:00,75.2,63.9,30.18,South,169,3.6,8.1,68,0.00,,---,0.43,VWS V14.01,2013-06-22 14:48:00,
2013-06-22 10:50:00,75.2,63.1,30.18,SSE,158,7.2,7.2,66,0.00,,---,0.43,VWS V14.01,2013-06-22 14:50:00,
2013-06-22 10:51:00,75.2,63.1,30.18,SSE,158,7.2,7.2,66,0.00,,---,0.43,VWS V14.01,2013-06-22 14:51:00,
2013-06-22 10:52:00,75.2,63.1,30.18,SSE,147,6.3,6.3,66,0.00,,---,0.43,VWS V14.01,2013-06-22 14:52:00,
2013-06-22 10:53:00,75.2,63.1,30.18,SSE,150,7.6,7.6,66,0.00,,---,0.43,VWS V14.01,2013-06-22 14:53:00,
2013-06-22 10:55:00,75.2,62.6,30.18,South,170,5.4,9.6,65,0.04,,---,0.47,VWS V14.01,2013-06-22 14:55:00,
2013-06-22 10:56:00,75.4,62.8,30.18,South,173,8.3,8.3,65,0.04,,---,0.47,VWS V14.01,2013-06-22 14:56:00,
2013-06-22 10:57:00,75.4,62.4,30.18,SSE,167,10.1,10.1,64,0.04,,---,0.47,VWS V14.01,2013-06-22 14:57:00,
2013-06-22 10:58:00,75.2,60.8,30.18,ESE,111,5.8,11.0,61,0.04,,---,0.47,VWS V14.01,2013-06-22 14:58:00,
2013-06-22 11:00:00,75.2,60.4,30.18,ESE,118,9.6,9.6,60,0.04,,---,0.47,VWS V14.01,2013-06-22 15:00:00,
2013-06-22 11:01:00,75.2,60.4,30.18,SE,133,8.7,8.7,60,0.04,,---,0.47,VWS V14.01,2013-06-22 15:01:00,
2013-06-22 11:02:00,75.2,60.4,30.18,South,184,6.3,8.7,60,0.04,,---,0.47,VWS V14.01,2013-06-22 15:02:00,
2013-06-22 11:03:00,75.0,58.8,30.18,SE,139,6.3,6.3,57,0.04,,---,0.47,VWS V14.01,2013-06-22 15:03:00,
2013-06-22 11:05:00,75.0,58.8,30.18,South,171,6.3,8.3,57,0.04,,---,0.47,VWS V14.01,2013-06-22 15:05:00,
2013-06-22 11:07:00,75.0,59.3,30.18,SE,138,6.3,6.3,58,0.04,,---,0.47,VWS V14.01,2013-06-22 15:07:00,
2013-06-22 11:08:00,75.0,59.3,30.18,SSE,165,5.4,11.0,58,0.04,,---,0.47,VWS V14.01,2013-06-22 15:08:00,
2013-06-22 11:10:00,75.0,59.3,30.18,South,187,10.5,10.5,58,0.04,,---,0.47,VWS V14.01,2013-06-22 15:10:00,
2013-06-22 11:12:00,75.2,59.4,30.18,SSE,147,10.5,10.5,58,0.04,,---,0.47,VWS V14.01,2013-06-22 15:12:00,
2013-06-22 11:13:00,75.2,59.4,30.18,South,174,6.3,6.3,58,0.04,,---,0.47,VWS V14.01,2013-06-22 15:13:00,
2013-06-22 11:15:00,74.8,59.1,30.18,SSE,159,10.1,10.1,58,0.04,,---,0.47,VWS V14.01,2013-06-22 15:15:00,
2013-06-22 11:17:00,74.7,58.9,30.18,South,178,6.3,7.6,58,0.04,,---,0.47,VWS V14.01,2013-06-22 15:17:00,
2013-06-22 11:19:00,74.5,58.3,30.18,SSW,193,8.1,13.2,57,0.04,,---,0.47,VWS V14.01,2013-06-22 15:19:00,
2013-06-22 11:20:00,74.5,58.3,30.18,SSW,193,8.1,8.1,57,0.04,,---,0.47,VWS V14.01,2013-06-22 15:20:00,
2013-06-22 11:22:00,74.3,58.1,30.18,SE,124,4.0,5.8,57,0.04,,---,0.47,VWS V14.01,2013-06-22 15:22:00,
2013-06-22 11:24:00,73.9,57.8,30.18,South,169,6.3,11.0,57,0.04,,---,0.47,VWS V14.01,2013-06-22 15:24:00,
2013-06-22 11:25:00,73.9,57.8,30.18,WSW,239,3.6,11.0,57,0.04,,---,0.47,VWS V14.01,2013-06-22 15:25:00,
2013-06-22 11:27:00,73.9,58.2,30.21,SE,141,8.1,8.1,58,0.04,,---,0.47,VWS V14.01,2013-06-22 15:27:00,
2013-06-22 11:29:00,73.9,60.1,30.21,South,183,8.3,8.3,62,0.04,,---,0.47,VWS V14.01,2013-06-22 15:29:00,
2013-06-22 11:30:00,73.9,60.1,30.21,SSW,206,8.1,8.3,62,0.04,,---,0.47,VWS V14.01,2013-06-22 15:30:00,
2013-06-22 11:31:00,73.9,60.1,30.21,SSE,164,10.1,10.1,62,0.04,,---,0.47,VWS V14.01,2013-06-22 15:31:00,
2013-06-22 11:32:00,73.9,60.6,30.21,SSE,165,7.6,7.6,63,0.04,,---,0.47,VWS V14.01,2013-06-22 15:32:00,
2013-06-22 11:34:00,73.9,60.6,30.21,SSW,193,4.0,5.4,63,0.04,,---,0.47,VWS V14.01,2013-06-22 15:34:00,
2013-06-22 11:35:00,73.9,60.6,30.21,South,171,8.3,8.3,63,0.04,,---,0.47,VWS V14.01,2013-06-22 15:35:00,
2013-06-22 11:36:00,73.9,60.6,30.21,SSW,197,7.2,8.3,63,0.04,,---,0.47,VWS V14.01,2013-06-22 15:36:00,
2013-06-22 11:37:00,73.6,60.2,30.21,SE,136,6.3,8.7,63,0.04,,---,0.47,VWS V14.01,2013-06-22 15:37:00,
2013-06-22 11:39:00,73.4,60.5,30.21,SW,214,7.6,7.6,64,0.04,,---,0.47,VWS V14.01,2013-06-22 15:39:00,
2013-06-22 11:40:00,73.4,60.9,30.21,SW,214,7.6,7.6,65,0.04,,---,0.47,VWS V14.01,2013-06-22 15:40:00,
2013-06-22 11:41:00,73.4,60.9,30.21,SW,214,7.6,7.6,65,0.04,,---,0.47,VWS V14.01,2013-06-22 15:41:00,
2013-06-22 11:42:00,73.4,60.9,30.21,SSE,162,5.4,8.7,65,0.04,,---,0.47,VWS V14.01,2013-06-22 15:42:00,
2013-06-22 11:44:00,73.2,61.6,30.18,SSE,158,5.8,5.8,67,0.04,,---,0.47,VWS V14.01,2013-06-22 15:44:00,
2013-06-22 11:45:00,73.2,61.6,30.18,SE,131,13.2,13.2,67,0.04,,---,0.47,VWS V14.01,2013-06-22 15:45:00,
2013-06-22 11:46:00,73.0,61.5,30.18,SE,134,8.1,13.2,67,0.04,,---,0.47,VWS V14.01,2013-06-22 15:46:00,
2013-06-22 11:47:00,72.9,61.7,30.18,SSE,162,12.3,12.3,68,0.04,,---,0.47,VWS V14.01,2013-06-22 15:47:00,
2013-06-22 11:49:00,72.7,61.9,30.18,SE,144,7.6,7.6,69,0.04,,---,0.47,VWS V14.01,2013-06-22 15:49:00,
2013-06-22 11:50:00,72.7,61.9,30.18,ENE,65,5.8,7.6,69,0.04,,---,0.47,VWS V14.01,2013-06-22 15:50:00,
2013-06-22 11:51:00,72.7,61.9,30.18,ENE,65,5.8,7.6,69,0.04,,---,0.47,VWS V14.01,2013-06-22 15:51:00,
2013-06-22 11:52:00,72.7,62.7,30.18,SSE,168,4.0,4.0,71,0.04,,---,0.47,VWS V14.01,2013-06-22 15:52:00,
2013-06-22 11:54:00,72.7,62.7,30.18,SSE,156,13.2,13.2,71,0.04,,---,0.47,VWS V14.01,2013-06-22 15:54:00,
2013-06-22 11:55:00,72.7,62.7,30.18,South,183,8.1,8.1,71,0.00,,---,0.47,VWS V14.01,2013-06-22 15:55:00,
2013-06-22 11:56:00,72.7,62.7,30.18,SE,133,10.5,10.5,71,0.00,,---,0.47,VWS V14.01,2013-06-22 15:56:00,
2013-06-22 11:57:00,72.5,64.1,30.18,SE,141,7.6,7.6,75,0.00,,---,0.47,VWS V14.01,2013-06-22 15:57:00,
2013-06-22 11:58:00,72.5,64.1,30.18,SE,141,7.6,7.6,75,0.00,,---,0.47,VWS V14.01,2013-06-22 15:58:00,
2013-06-22 12:00:00,72.5,64.1,30.18,ESE,103,5.8,5.8,75,0.00,,---,0.47,VWS V14.01,2013-06-22 16:00:00,
2013-06-22 12:01:00,72.3,64.0,30.21,SE,137,8.3,10.1,75,0.00,,---,0.47,VWS V14.01,2013-06-22 16:01:00,
2013-06-22 12:02:00,72.3,64.0,30.21,SE,137,8.3,8.3,75,0.00,,---,0.47,VWS V14.01,2013-06-22 16:02:00,
2013-06-22 12:05:00,72.3,65.1,30.21,ESE,108,10.5,10.5,78,0.00,,---,0.47,VWS V14.01,2013-06-22 16:05:00,
2013-06-22 12:06:00,72.3,65.4,30.21,SSW,207,6.7,10.5,79,0.00,,---,0.47,VWS V14.01,2013-06-22 16:06:00,
2013-06-22 12:07:00,72.3,65.8,30.21,South,173,5.4,6.7,80,0.00,,---,0.47,VWS V14.01,2013-06-22 16:07:00,
2013-06-22 12:10:00,72.3,65.8,30.21,SSE,159,6.3,7.6,80,0.00,,---,0.47,VWS V14.01,2013-06-22 16:10:00,
2013-06-22 12:11:00,72.3,65.8,30.21,ESE,114,8.1,8.1,80,0.00,,---,0.47,VWS V14.01,2013-06-22 16:11:00,
2013-06-22 12:12:00,72.5,66.3,30.21,SE,146,6.7,6.7,81,0.00,,---,0.47,VWS V14.01,2013-06-22 16:12:00,
2013-06-22 12:15:00,72.3,65.8,30.21,SSE,155,7.6,12.8,80,0.00,,---,0.47,VWS V14.01,2013-06-22 16:15:00,
2013-06-22 12:16:00,72.3,65.8,30.21,SE,134,5.4,7.6,80,0.00,,---,0.47,VWS V14.01,2013-06-22 16:16:00,
2013-06-22 12:17:00,72.3,65.8,30.21,SSE,168,7.6,7.6,80,0.00,,---,0.47,VWS V14.01,2013-06-22 16:17:00,
2013-06-22 12:20:00,72.3,65.8,30.21,SSE,147,8.3,8.3,80,0.00,,---,0.47,VWS V14.01,2013-06-22 16:20:00,
2013-06-22 12:21:00,72.1,65.6,30.21,SE,137,8.3,8.3,80,0.00,,---,0.47,VWS V14.01,2013-06-22 16:21:00,
2013-06-22 12:22:00,72.1,65.6,30.21,ESE,103,8.7,8.7,80,0.00,,---,0.47,VWS V14.01,2013-06-22 16:22:00,
2013-06-22 12:25:00,72.1,65.6,30.21,ESE,114,5.4,5.8,80,0.00,,---,0.47,VWS V14.01,2013-06-22 16:25:00,
2013-06-22 12:26:00,72.0,65.5,30.21,ESE,114,5.4,5.4,80,0.00,,---,0.47,VWS V14.01,2013-06-22 16:26:00,
2013-06-22 12:27:00,72.0,65.5,30.21,SSE,156,5.4,5.4,80,0.00,,---,0.47,VWS V14.01,2013-06-22 16:27:00,
2013-06-22 12:28:00,72.0,65.5,30.21,SSE,156,5.4,5.4,80,0.00,,---,0.47,VWS V14.01,2013-06-22 16:28:00,
2013-06-22 12:30:00,72.1,66.3,30.21,East,101,5.4,5.4,82,0.04,,---,0.51,VWS V14.01,2013-06-22 16:30:00,
2013-06-22 12:31:00,72.1,66.3,30.21,ESE,102,5.4,5.4,82,0.04,,---,0.51,VWS V14.01,2013-06-22 16:31:00,
2013-06-22 12:32:00,72.3,66.9,30.21,ESE,113,9.2,9.2,83,0.04,,---,0.51,VWS V14.01,2013-06-22 16:32:00,
2013-06-22 12:33:00,72.3,66.9,30.21,ESE,113,9.2,9.2,83,0.04,,---,0.51,VWS V14.01,2013-06-22 16:33:00,
2013-06-22 12:35:00,72.3,66.2,30.21,SSE,152,4.0,8.1,81,0.04,,---,0.00,VWS V14.01,2013-06-22 16:35:00,
2013-06-22 12:36:00,72.3,66.2,30.21,ESE,104,6.3,6.3,81,0.04,,---,0.51,VWS V14.01,2013-06-22 16:36:00,
2013-06-22 12:37:00,72.3,66.2,30.21,SSE,165,3.6,6.3,81,0.04,,---,0.51,VWS V14.01,2013-06-22 16:37:00,
2013-06-22 12:38:00,72.3,66.2,30.21,SE,139,4.9,6.3,81,0.04,,---,0.51,VWS V14.01,2013-06-22 16:38:00,
2013-06-22 12:40:00,72.3,66.2,30.21,SE,126,8.3,8.3,81,0.04,,---,0.51,VWS V14.01,2013-06-22 16:40:00,
2013-06-22 12:41:00,72.3,66.2,30.21,SSE,148,6.7,6.7,81,0.04,,---,0.51,VWS V14.01,2013-06-22 16:41:00,
2013-06-22 12:43:00,72.3,66.2,30.21,SE,143,3.6,6.3,81,0.04,,---,0.51,VWS V14.01,2013-06-22 16:43:00,
2013-06-22 12:45:00,72.7,66.5,30.21,SE,131,4.0,4.0,81,0.04,,---,0.51,VWS V14.01,2013-06-22 16:45:00,
2013-06-22 12:46:00,72.7,66.2,30.21,SSE,155,4.9,5.8,80,0.04,,---,0.51,VWS V14.01,2013-06-22 16:46:00,
2013-06-22 12:48:00,72.7,66.2,30.21,SSE,150,5.4,5.4,80,0.04,,---,0.51,VWS V14.01,2013-06-22 16:48:00,
2013-06-22 12:50:00,72.9,66.3,30.21,SE,136,4.0,4.0,80,0.04,,---,0.51,VWS V14.01,2013-06-22 16:50:00,
2013-06-22 12:51:00,72.9,66.3,30.21,South,181,5.8,5.8,80,0.04,,---,0.51,VWS V14.01,2013-06-22 16:51:00,
2013-06-22 12:53:00,73.0,66.5,30.21,South,169,3.1,3.1,80,0.04,,---,0.51,VWS V14.01,2013-06-22 16:53:00,
2013-06-22 12:55:00,73.2,66.7,30.21,ESE,119,4.0,4.0,80,0.04,,---,0.51,VWS V14.01,2013-06-22 16:55:00,
2013-06-22 12:56:00,73.2,66.7,30.21,SSE,154,6.3,6.3,80,0.04,,---,0.51,VWS V14.01,2013-06-22 16:56:00,
2013-06-22 12:58:00,73.2,66.7,30.21,East,101,6.3,6.3,80,0.04,,---,0.51,VWS V14.01,2013-06-22 16:58:00,
2013-06-22 13:01:00,73.4,66.5,30.21,South,170,7.2,13.2,79,0.04,,---,0.51,VWS V14.01,2013-06-22 17:01:00,
2013-06-22 13:02:00,73.4,66.5,30.21,SSE,151,5.8,7.2,79,0.04,,---,0.51,VWS V14.01,2013-06-22 17:02:00,
2013-06-22 13:03:00,73.4,66.5,30.21,SSE,167,5.8,5.8,79,0.04,,---,0.51,VWS V14.01,2013-06-22 17:03:00,
2013-06-22 13:06:00,73.6,66.7,30.21,South,189,7.6,7.6,79,0.04,,---,0.51,VWS V14.01,2013-06-22 17:06:00,
2013-06-22 13:07:00,73.8,66.5,30.21,SE,143,4.0,7.6,78,0.04,,---,0.51,VWS V14.01,2013-06-22 17:07:00,
2013-06-22 13:08:00,73.8,66.5,30.21,SSE,161,7.6,7.6,78,0.04,,---,0.51,VWS V14.01,2013-06-22 17:08:00,
2013-06-22 13:11:00,74.1,66.8,30.21,SSE,156,4.9,4.9,78,0.04,,---,0.51,VWS V14.01,2013-06-22 17:11:00,
2013-06-22 13:12:00,74.1,66.8,30.21,SW,220,5.8,5.8,78,0.04,,---,0.51,VWS V14.01,2013-06-22 17:12:00,
2013-06-22 13:13:00,74.1,66.8,30.21,ESE,122,4.0,5.8,78,0.04,,---,0.51,VWS V14.01,2013-06-22 17:13:00,
2013-06-22 13:16:00,74.5,67.6,30.21,ESE,123,5.8,5.8,79,0.04,,---,0.51,VWS V14.01,2013-06-22 17:16:00,
2013-06-22 13:17:00,74.5,67.6,30.21,SSW,193,2.7,5.8,79,0.04,,---,0.51,VWS V14.01,2013-06-22 17:17:00,
2013-06-22 13:18:00,74.7,67.7,30.21,SE,129,3.6,3.6,79,0.04,,---,0.51,VWS V14.01,2013-06-22 17:18:00,
2013-06-22 13:19:00,74.7,67.3,30.21,SE,129,3.6,3.6,78,0.04,,---,0.51,VWS V14.01,2013-06-22 17:19:00,
2013-06-22 13:21:00,74.7,67.3,30.21,ESE,103,8.1,8.1,78,0.04,,---,0.51,VWS V14.01,2013-06-22 17:21:00,
2013-06-22 13:22:00,74.7,65.0,30.21,SE,139,8.3,8.3,72,0.04,,---,0.51,VWS V14.01,2013-06-22 17:22:00,
2013-06-22 13:23:00,74.8,65.2,30.21,SSE,151,8.3,8.3,72,0.04,,---,0.51,VWS V14.01,2013-06-22 17:23:00,
2013-06-22 13:24:00,74.8,65.2,30.21,ESE,121,7.6,8.3,72,0.04,,---,0.51,VWS V14.01,2013-06-22 17:24:00,
2013-06-22 13:26:00,75.0,64.6,30.21,SE,125,6.7,6.7,70,0.04,,---,0.51,VWS V14.01,2013-06-22 17:26:00,
2013-06-22 13:27:00,75.0,64.6,30.21,South,173,4.5,7.6,70,0.04,,---,0.51,VWS V14.01,2013-06-22 17:27:00,
2013-06-22 13:28:00,75.2,63.9,30.21,South,185,3.1,4.9,68,0.04,,---,0.51,VWS V14.01,2013-06-22 17:28:00,
2013-06-22 13:29:00,75.2,63.9,30.21,SE,146,7.6,7.6,68,0.04,,---,0.51,VWS V14.01,2013-06-22 17:29:00,
2013-06-22 13:31:00,75.2,63.9,30.21,SE,130,5.4,5.4,68,0.00,,---,0.51,VWS V14.01,2013-06-22 17:31:00,
2013-06-22 13:32:00,75.2,63.9,30.21,SSE,150,4.0,5.4,68,0.00,,---,0.51,VWS V14.01,2013-06-22 17:32:00,
2013-06-22 13:33:00,75.2,62.2,30.21,SSE,155,5.8,5.8,64,0.00,,---,0.51,VWS V14.01,2013-06-22 17:33:00,
2013-06-22 13:34:00,75.2,62.2,30.21,SSE,155,5.8,5.8,64,0.00,,---,0.51,VWS V14.01,2013-06-22 17:34:00,
2013-06-22 13:36:00,75.2,62.2,30.21,South,173,4.9,4.9,64,0.00,,---,0.51,VWS V14.01,2013-06-22 17:36:00,
2013-06-22 13:37:00,75.2,62.2,30.21,South,173,4.9,4.9,64,0.00,,---,0.51,VWS V14.01,2013-06-22 17:37:00,
2013-06-22 13:38:00,75.2,62.2,30.21,South,170,5.4,5.4,64,0.00,,---,0.51,VWS V14.01,2013-06-22 17:38:00,
2013-06-22 13:39:00,75.2,62.2,30.21,South,170,5.4,5.4,64,0.00,,---,0.51,VWS V14.01,2013-06-22 17:39:00,
2013-06-22 13:41:00,75.0,62.5,30.21,ESE,115,4.0,4.0,65,0.00,,---,0.51,VWS V14.01,2013-06-22 17:41:00,
2013-06-22 13:42:00,75.0,62.5,30.21,South,173,5.8,5.8,65,0.00,,---,0.51,VWS V14.01,2013-06-22 17:42:00,
2013-06-22 13:44:00,74.8,62.3,30.21,ESE,106,4.5,5.8,65,0.00,,---,0.51,VWS V14.01,2013-06-22 17:44:00,
2013-06-22 13:47:00,74.8,62.7,30.21,SSE,151,5.4,5.4,66,0.00,,---,0.51,VWS V14.01,2013-06-22 17:47:00,
2013-06-22 13:49:00,74.7,63.0,30.21,SSW,201,3.1,6.3,67,0.00,,---,0.51,VWS V14.01,2013-06-22 17:49:00,
2013-06-22 13:52:00,74.7,63.0,30.21,East,97,5.4,5.8,67,0.00,,---,0.51,VWS V14.01,2013-06-22 17:52:00,
2013-06-22 13:54:00,74.5,63.2,30.21,SSE,162,5.4,8.3,68,0.00,,---,0.51,VWS V14.01,2013-06-22 17:54:00,
2013-06-22 13:57:00,74.7,64.2,30.21,ESE,114,2.7,2.7,70,0.00,,---,0.51,VWS V14.01,2013-06-22 17:57:00,
2013-06-22 13:59:00,74.7,64.2,30.21,South,171,3.1,3.1,70,0.00,,---,0.51,VWS V14.01,2013-06-22 17:59:00,
2013-06-22 14:02:00,74.7,64.6,30.21,South,181,5.4,5.4,71,0.00,,---,0.51,VWS V14.01,2013-06-22 18:02:00,
2013-06-22 14:04:00,74.7,65.0,30.21,South,173,3.6,3.6,72,0.00,,---,0.51,VWS V14.01,2013-06-22 18:04:00,
2013-06-22 14:07:00,74.8,66.0,30.21,ESE,109,5.8,5.8,74,0.00,,---,0.51,VWS V14.01,2013-06-22 18:07:00,
2013-06-22 14:08:00,74.8,66.0,30.21,SSE,153,4.0,5.8,74,0.00,,---,0.51,VWS V14.01,2013-06-22 18:08:00,
2013-06-22 14:09:00,74.8,66.0,30.21,SSE,153,3.1,3.1,74,0.00,,---,0.51,VWS V14.01,2013-06-22 18:09:00,
2013-06-22 14:12:00,75.0,66.6,30.18,SSE,165,3.6,3.6,75,0.00,,---,0.51,VWS V14.01,2013-06-22 18:12:00,
2013-06-22 14:13:00,75.0,66.6,30.18,ESE,118,5.4,8.3,75,0.00,,---,0.51,VWS V14.01,2013-06-22 18:13:00,
2013-06-22 14:14:00,75.0,66.9,30.18,SE,138,4.0,5.4,76,0.00,,---,0.51,VWS V14.01,2013-06-22 18:14:00,
2013-06-22 14:17:00,75.0,66.9,30.18,ESE,121,5.8,7.6,76,0.00,,---,0.51,VWS V14.01,2013-06-22 18:17:00,
2013-06-22 14:18:00,75.0,66.9,30.18,ESE,118,4.0,7.6,76,0.00,,---,0.51,VWS V14.01,2013-06-22 18:18:00,
2013-06-22 14:19:00,75.0,66.9,30.18,SSE,167,4.0,4.0,76,0.00,,---,0.51,VWS V14.01,2013-06-22 18:19:00,
2013-06-22 14:22:00,75.2,67.1,30.18,SSE,163,7.6,7.6,76,0.00,,---,0.51,VWS V14.01,2013-06-22 18:22:00,
2013-06-22 14:23:00,75.2,67.1,30.18,SE,144,5.4,8.7,76,0.00,,---,0.51,VWS V14.01,2013-06-22 18:23:00,
2013-06-22 14:24:00,75.2,67.1,30.18,SSE,158,4.0,8.1,76,0.00,,---,0.51,VWS V14.01,2013-06-22 18:24:00,
2013-06-22 14:25:00,75.2,67.1,30.18,SSE,158,4.0,8.1,76,0.00,,---,0.51,VWS V14.01,2013-06-22 18:25:00,
2013-06-22 14:27:00,75.4,67.3,30.18,SE,135,4.9,5.4,76,0.00,,---,0.51,VWS V14.01,2013-06-22 18:27:00,
2013-06-22 14:28:00,75.4,67.3,30.18,ESE,108,8.1,8.3,76,0.04,,---,0.55,VWS V14.01,2013-06-22 18:28:00,
2013-06-22 14:29:00,75.4,67.3,30.18,SSE,155,5.8,5.8,76,0.04,,---,0.55,VWS V14.01,2013-06-22 18:29:00,
2013-06-22 14:30:00,75.4,67.3,30.18,South,182,8.1,8.1,76,0.04,,---,0.55,VWS V14.01,2013-06-22 18:30:00,
2013-06-22 14:32:00,75.4,64.9,30.18,ESE,113,6.3,6.3,70,0.04,,---,0.55,VWS V14.01,2013-06-22 18:32:00,
2013-06-22 14:33:00,75.4,64.9,30.18,SE,139,5.8,5.8,70,0.04,,---,0.55,VWS V14.01,2013-06-22 18:33:00,
2013-06-22 14:35:00,75.4,64.9,30.18,SE,128,5.4,6.3,70,0.04,,---,0.55,VWS V14.01,2013-06-22 18:35:00,
2013-06-22 14:37:00,75.4,64.9,30.18,SE,128,8.1,8.1,70,0.04,,---,0.55,VWS V14.01,2013-06-22 18:37:00,
2013-06-22 14:38:00,75.4,64.9,30.18,ESE,113,12.8,12.8,70,0.04,,---,0.55,VWS V14.01,2013-06-22 18:38:00,
2013-06-22 14:40:00,75.7,62.7,30.18,South,184,5.8,5.8,64,0.04,,---,0.55,VWS V14.01,2013-06-22 18:40:00,
2013-06-22 14:42:00,75.9,62.4,30.18,SE,128,5.4,6.3,63,0.04,,---,0.55,VWS V14.01,2013-06-22 18:42:00,
2013-06-22 14:43:00,75.9,62.4,30.18,SE,128,5.4,6.3,63,0.04,,---,0.55,VWS V14.01,2013-06-22 18:43:00,
2013-06-22 14:45:00,75.9,62.4,30.18,South,172,5.8,7.6,63,0.04,,---,0.55,VWS V14.01,2013-06-22 18:45:00,
2013-06-22 14:47:00,76.1,62.2,30.18,SE,126,5.8,5.8,62,0.04,,---,0.55,VWS V14.01,2013-06-22 18:47:00,
2013-06-22 14:48:00,76.1,62.2,30.18,ESE,106,10.1,10.1,62,0.04,,---,0.55,VWS V14.01,2013-06-22 18:48:00,
2013-06-22 14:50:00,76.1,61.2,30.18,ESE,104,8.3,11.0,60,0.04,,---,0.55,VWS V14.01,2013-06-22 18:50:00,
2013-06-22 14:52:00,76.1,61.2,30.18,ESE,119,8.3,8.3,60,0.04,,---,0.55,VWS V14.01,2013-06-22 18:52:00,
2013-06-22 14:53:00,76.1,61.2,30.18,ESE,122,7.6,7.6,60,0.04,,---,0.55,VWS V14.01,2013-06-22 18:53:00,
2013-06-22 14:55:00,76.1,61.2,30.18,South,179,8.3,8.3,60,0.04,,---,0.55,VWS V14.01,2013-06-22 18:55:00,
2013-06-22 14:58:00,76.3,61.4,30.18,ESE,115,8.3,11.0,60,0.04,,---,0.55,VWS V14.01,2013-06-22 18:58:00,
2013-06-22 15:00:00,76.3,61.4,30.18,SE,136,3.1,3.1,60,0.04,,---,0.55,VWS V14.01,2013-06-22 19:00:00,
2013-06-22 15:03:00,76.5,62.9,30.18,SE,124,4.0,5.4,63,0.04,,---,0.55,VWS V14.01,2013-06-22 19:03:00,
2013-06-22 15:04:00,76.5,62.9,30.18,ESE,117,5.4,7.6,63,0.04,,---,0.55,VWS V14.01,2013-06-22 19:04:00,
2013-06-22 15:05:00,76.5,62.9,30.18,SE,134,5.4,5.4,63,0.04,,---,0.55,VWS V14.01,2013-06-22 19:05:00,
2013-06-22 15:08:00,76.3,63.2,30.18,SSE,149,6.3,8.1,64,0.04,,---,0.55,VWS V14.01,2013-06-22 19:08:00,
2013-06-22 15:09:00,76.3,63.2,30.18,SE,125,12.3,12.3,64,0.04,,---,0.55,VWS V14.01,2013-06-22 19:09:00,
2013-06-22 15:10:00,76.1,62.6,30.18,SE,125,12.3,12.3,63,0.04,,---,0.55,VWS V14.01,2013-06-22 19:10:00,
2013-06-22 15:13:00,76.1,62.6,30.18,SSE,152,6.3,8.1,63,0.04,,---,0.55,VWS V14.01,2013-06-22 19:13:00,
2013-06-22 15:14:00,75.9,62.4,30.18,SSE,163,7.6,8.1,63,0.04,,---,0.55,VWS V14.01,2013-06-22 19:14:00,
2013-06-22 15:15:00,75.9,62.4,30.18,SSE,156,5.8,10.5,63,0.04,,---,0.55,VWS V14.01,2013-06-22 19:15:00,
2013-06-22 15:18:00,75.9,62.9,30.18,SE,146,7.6,10.1,64,0.04,,---,0.55,VWS V14.01,2013-06-22 19:18:00,
2013-06-22 15:19:00,75.9,62.9,30.18,East,96,7.6,7.6,64,0.04,,---,0.55,VWS V14.01,2013-06-22 19:19:00,
2013-06-22 15:20:00,75.9,62.9,30.18,ENE,73,6.3,6.3,64,0.04,,---,0.55,VWS V14.01,2013-06-22 19:20:00,
2013-06-22 15:23:00,75.9,62.9,30.18,East,101,5.8,5.8,64,0.04,,---,0.55,VWS V14.01,2013-06-22 19:23:00,
2013-06-22 15:24:00,75.7,62.3,30.18,SE,130,6.3,6.3,63,0.04,,---,0.55,VWS V14.01,2013-06-22 19:24:00,
2013-06-22 15:25:00,75.7,61.8,30.18,South,178,8.7,8.7,62,0.04,,---,0.55,VWS V14.01,2013-06-22 19:25:00,
2013-06-22 15:26:00,75.7,61.8,30.18,South,178,8.7,8.7,62,0.04,,---,0.55,VWS V14.01,2013-06-22 19:26:00,
2013-06-22 15:28:00,75.7,62.3,30.18,SE,129,8.3,8.3,63,0.04,,---,0.55,VWS V14.01,2013-06-22 19:28:00,
2013-06-22 15:29:00,75.7,62.7,30.18,SE,132,5.4,8.3,64,0.04,,---,0.55,VWS V14.01,2013-06-22 19:29:00,
2013-06-22 15:30:00,75.7,62.7,30.18,ESE,117,10.1,10.1,64,0.00,,---,0.55,VWS V14.01,2013-06-22 19:30:00,
2013-06-22 15:31:00,75.7,62.7,30.18,ESE,116,7.6,10.1,64,0.00,,---,0.55,VWS V14.01,2013-06-22 19:31:00,
2013-06-22 15:33:00,75.9,64.2,30.18,SE,134,5.8,8.3,67,0.00,,---,0.55,VWS V14.01,2013-06-22 19:33:00,
2013-06-22 15:34:00,75.9,64.2,30.18,East,79,6.3,6.3,67,0.00,,---,0.55,VWS V14.01,2013-06-22 19:34:00,
2013-06-22 15:35:00,75.9,64.2,30.18,SE,129,8.1,8.3,67,0.00,,---,0.55,VWS V14.01,2013-06-22 19:35:00,
2013-06-22 15:36:00,75.9,64.2,30.18,ESE,103,8.3,8.3,67,0.00,,---,0.55,VWS V14.01,2013-06-22 19:36:00,
2013-06-22 15:38:00,76.1,63.9,30.18,SE,129,6.3,6.3,66,0.00,,---,0.55,VWS V14.01,2013-06-22 19:38:00,
2013-06-22 15:39:00,76.1,63.9,30.18,ESE,116,6.3,8.1,66,0.00,,---,0.55,VWS V14.01,2013-06-22 19:39:00,
2013-06-22 15:41:00,76.5,65.1,30.18,East,81,4.9,6.3,68,0.00,,---,0.55,VWS V14.01,2013-06-22 19:41:00,
2013-06-22 15:43:00,76.5,65.1,30.18,SE,130,8.1,8.1,68,0.00,,---,0.55,VWS V14.01,2013-06-22 19:43:00,
2013-06-22 15:44:00,76.8,64.2,30.18,East,82,4.9,11.4,65,0.00,,---,0.55,VWS V14.01,2013-06-22 19:44:00,
2013-06-22 15:46:00,76.8,64.2,30.18,ESE,108,5.4,5.8,65,0.00,,---,0.55,VWS V14.01,2013-06-22 19:46:00,
2013-06-22 15:48:00,77.2,63.6,30.18,SSE,152,5.8,5.8,63,0.00,,---,0.55,VWS V14.01,2013-06-22 19:48:00,
2013-06-22 15:49:00,77.2,63.6,30.18,ESE,113,6.3,6.3,63,0.00,,---,0.55,VWS V14.01,2013-06-22 19:49:00,
2013-06-22 15:50:00,77.0,61.6,30.18,East,98,7.2,8.3,59,0.00,,---,0.55,VWS V14.01,2013-06-22 19:50:00,
2013-06-22 15:51:00,77.0,61.6,30.18,ESE,122,6.3,8.1,59,0.00,,---,0.55,VWS V14.01,2013-06-22 19:51:00,
2013-06-22 15:53:00,77.0,62.1,30.18,ESE,118,8.7,8.7,60,0.00,,---,0.55,VWS V14.01,2013-06-22 19:53:00,
2013-06-22 15:54:00,77.0,62.1,30.18,ESE,118,8.7,8.7,60,0.00,,---,0.55,VWS V14.01,2013-06-22 19:54:00,
2013-06-22 15:55:00,77.0,62.1,30.18,ESE,111,5.4,8.7,60,0.00,,---,0.55,VWS V14.01,2013-06-22 19:55:00,
2013-06-22 15:56:00,77.0,62.1,30.18,ESE,116,8.7,8.7,60,0.00,,---,0.55,VWS V14.01,2013-06-22 19:56:00,
2013-06-22 15:58:00,77.2,62.2,30.18,East,96,4.0,8.7,60,0.00,,---,0.55,VWS V14.01,2013-06-22 19:58:00,
2013-06-22 15:59:00,77.2,62.2,30.18,South,182,6.3,8.7,60,0.00,,---,0.55,VWS V14.01,2013-06-22 19:59:00,
2013-06-22 16:00:00,77.4,62.9,30.18,SSE,155,6.3,8.3,61,0.00,,---,0.55,VWS V14.01,2013-06-22 20:00:00,
2013-06-22 16:01:00,77.4,62.4,30.18,ESE,123,8.3,8.3,60,0.00,,---,0.55,VWS V14.01,2013-06-22 20:01:00,
2013-06-22 16:02:00,77.5,62.6,30.18,SSE,147,10.1,10.1,60,0.00,,---,0.55,VWS V14.01,2013-06-22 20:02:00,
2013-06-22 16:03:00,77.5,61.6,30.18,ESE,120,5.8,8.3,58,0.00,,---,0.55,VWS V14.01,2013-06-22 20:03:00,
2013-06-22 16:04:00,77.5,61.6,30.18,East,83,5.8,8.3,58,0.00,,---,0.55,VWS V14.01,2013-06-22 20:04:00,
2013-06-22 16:05:00,77.7,62.3,30.18,ESE,123,5.8,5.8,59,0.00,,---,0.55,VWS V14.01,2013-06-22 20:05:00,
2013-06-22 16:06:00,77.7,62.3,30.18,South,183,8.3,8.3,59,0.00,,---,0.55,VWS V14.01,2013-06-22 20:06:00,
2013-06-22 16:07:00,77.9,61.0,30.18,SE,138,6.3,8.7,56,0.00,,---,0.55,VWS V14.01,2013-06-22 20:07:00,
2013-06-22 16:08:00,77.9,61.0,30.18,ESE,113,5.4,10.1,56,0.00,,---,0.55,VWS V14.01,2013-06-22 20:08:00,
2013-06-22 16:09:00,77.9,60.5,30.18,SE,134,4.9,4.9,55,0.00,,---,0.55,VWS V14.01,2013-06-22 20:09:00,
2013-06-22 16:10:00,77.9,61.0,30.18,East,97,6.3,8.1,56,0.00,,---,0.55,VWS V14.01,2013-06-22 20:10:00,
2013-06-22 16:11:00,77.9,61.0,30.18,East,86,3.1,8.1,56,0.00,,---,0.55,VWS V14.01,2013-06-22 20:11:00,
2013-06-22 16:12:00,77.9,61.5,30.18,ESE,120,5.4,6.3,57,0.00,,---,0.55,VWS V14.01,2013-06-22 20:12:00,
2013-06-22 16:13:00,77.9,61.5,30.18,SSE,147,8.7,8.7,57,0.00,,---,0.55,VWS V14.01,2013-06-22 20:13:00,
2013-06-22 16:14:00,77.9,62.0,30.18,East,93,5.4,5.4,58,0.00,,---,0.55,VWS V14.01,2013-06-22 20:14:00,
2013-06-22 16:15:00,77.9,62.0,30.18,East,79,6.3,6.3,58,0.00,,---,0.55,VWS V14.01,2013-06-22 20:15:00,
2013-06-22 16:16:00,77.9,62.0,30.18,ESE,106,8.3,8.3,58,0.00,,---,0.55,VWS V14.01,2013-06-22 20:16:00,
2013-06-22 16:17:00,77.9,62.0,30.18,ESE,121,8.1,8.1,58,0.00,,---,0.55,VWS V14.01,2013-06-22 20:17:00,
2013-06-22 16:19:00,77.9,60.5,30.18,ENE,72,4.9,8.1,55,0.00,,---,0.55,VWS V14.01,2013-06-22 20:19:00,
2013-06-22 16:20:00,77.7,59.8,30.18,SE,127,7.6,7.6,54,0.00,,---,0.55,VWS V14.01,2013-06-22 20:20:00,
2013-06-22 16:21:00,77.9,60.5,30.18,SE,127,7.6,7.6,55,0.00,,---,0.55,VWS V14.01,2013-06-22 20:21:00,
2013-06-22 16:22:00,77.7,60.3,30.18,East,98,5.8,8.1,55,0.00,,---,0.55,VWS V14.01,2013-06-22 20:22:00,
2013-06-22 16:24:00,77.9,61.0,30.18,ESE,123,5.4,6.3,56,0.00,,---,0.55,VWS V14.01,2013-06-22 20:24:00,
2013-06-22 16:25:00,77.9,60.5,30.18,ESE,113,4.0,4.0,55,0.00,,---,0.55,VWS V14.01,2013-06-22 20:25:00,
2013-06-22 16:26:00,77.9,60.5,30.18,ESE,110,5.4,5.4,55,0.00,,---,0.55,VWS V14.01,2013-06-22 20:26:00,
2013-06-22 16:27:00,78.1,61.1,30.18,SSE,163,6.3,10.5,56,0.00,,---,0.55,VWS V14.01,2013-06-22 20:27:00,
2013-06-22 16:29:00,78.1,61.1,30.18,SE,138,9.6,10.5,56,0.00,,---,0.55,VWS V14.01,2013-06-22 20:29:00,
2013-06-22 16:31:00,77.9,59.4,30.18,East,88,7.6,11.4,53,0.00,,---,0.55,VWS V14.01,2013-06-22 20:31:00,
2013-06-22 16:32:00,77.9,59.4,30.18,East,81,5.4,11.0,53,0.00,,---,0.55,VWS V14.01,2013-06-22 20:32:00,
2013-06-22 16:34:00,77.7,60.3,30.18,ESE,110,6.3,6.3,55,0.00,,---,0.55,VWS V14.01,2013-06-22 20:34:00,
2013-06-22 16:36:00,77.4,60.0,30.18,SE,126,4.0,10.1,55,0.00,,---,0.55,VWS V14.01,2013-06-22 20:36:00,
2013-06-22 16:37:00,77.4,60.0,30.18,ESE,119,5.8,9.2,55,0.00,,---,0.55,VWS V14.01,2013-06-22 20:37:00,
2013-06-22 16:39:00,77.0,60.1,30.18,SSE,163,8.1,8.1,56,0.00,,---,0.55,VWS V14.01,2013-06-22 20:39:00,
2013-06-22 16:40:00,77.0,60.1,30.18,SE,129,8.3,8.7,56,0.00,,---,0.55,VWS V14.01,2013-06-22 20:40:00,
2013-06-22 16:41:00,77.0,61.1,30.18,SE,126,5.4,8.3,58,0.00,,---,0.55,VWS V14.01,2013-06-22 20:41:00,
2013-06-22 16:42:00,77.0,61.1,30.18,SE,127,5.4,6.3,58,0.00,,---,0.55,VWS V14.01,2013-06-22 20:42:00,
2013-06-22 16:44:00,76.8,60.5,30.18,ESE,123,8.3,8.3,57,0.00,,---,0.55,VWS V14.01,2013-06-22 20:44:00,
2013-06-22 16:45:00,76.8,60.5,30.18,East,81,10.1,10.1,57,0.00,,---,0.55,VWS V14.01,2013-06-22 20:45:00,
2013-06-22 16:46:00,76.8,60.9,30.18,ESE,118,7.6,8.3,58,0.00,,---,0.55,VWS V14.01,2013-06-22 20:46:00,
2013-06-22 16:47:00,76.8,60.9,30.18,SSE,160,5.4,5.4,58,0.00,,---,0.55,VWS V14.01,2013-06-22 20:47:00,
2013-06-22 16:49:00,76.8,61.4,30.18,SE,126,6.3,6.3,59,0.00,,---,0.55,VWS V14.01,2013-06-22 20:49:00,
2013-06-22 16:50:00,77.0,61.1,30.18,ESE,118,7.6,7.6,58,0.00,,---,0.55,VWS V14.01,2013-06-22 20:50:00,
2013-06-22 16:51:00,77.0,61.1,30.18,ESE,107,10.5,10.5,58,0.00,,---,0.55,VWS V14.01,2013-06-22 20:51:00,
2013-06-22 16:53:00,77.0,61.1,30.18,East,97,6.7,8.3,58,0.00,,---,0.55,VWS V14.01,2013-06-22 20:53:00,
2013-06-22 16:54:00,77.0,61.1,30.18,SE,126,8.1,8.1,58,0.00,,---,0.55,VWS V14.01,2013-06-22 20:54:00,
2013-06-22 16:55:00,77.0,61.1,30.18,East,95,8.3,8.3,58,0.00,,---,0.55,VWS V14.01,2013-06-22 20:55:00,
2013-06-22 16:56:00,77.0,60.1,30.18,ESE,104,8.1,8.1,56,0.00,,---,0.55,VWS V14.01,2013-06-22 20:56:00,
2013-06-22 16:58:00,77.0,60.1,30.18,ESE,117,10.5,10.5,56,0.00,,---,0.55,VWS V14.01,2013-06-22 20:58:00,
2013-06-22 16:59:00,77.0,60.1,30.18,SE,141,4.9,10.5,56,0.00,,---,0.55,VWS V14.01,2013-06-22 20:59:00,
2013-06-22 17:00:00,76.8,60.5,30.18,SE,127,5.4,5.4,57,0.00,,---,0.55,VWS V14.01,2013-06-22 21:00:00,
2013-06-22 17:01:00,76.8,60.5,30.18,SSE,155,4.9,8.1,57,0.00,,---,0.55,VWS V14.01,2013-06-22 21:01:00,
2013-06-22 17:03:00,76.8,60.0,30.18,East,92,3.6,3.6,56,0.00,,---,0.55,VWS V14.01,2013-06-22 21:03:00,
2013-06-22 17:04:00,76.8,60.0,30.18,SE,125,3.6,3.6,56,0.00,,---,0.55,VWS V14.01,2013-06-22 21:04:00,
2013-06-22 17:05:00,76.8,60.0,30.18,SSE,167,8.7,8.7,56,0.00,,---,0.55,VWS V14.01,2013-06-22 21:05:00,
2013-06-22 17:06:00,76.6,59.8,30.18,ESE,117,5.4,5.4,56,0.00,,---,0.55,VWS V14.01,2013-06-22 21:06:00,
2013-06-22 17:07:00,76.6,59.8,30.18,ESE,117,5.4,5.4,56,0.00,,---,0.55,VWS V14.01,2013-06-22 21:07:00,
2013-06-22 17:08:00,76.6,59.8,30.18,South,181,5.8,11.0,56,0.00,,---,0.55,VWS V14.01,2013-06-22 21:08:00,
2013-06-22 17:09:00,76.6,60.3,30.18,ESE,102,5.4,5.4,57,0.00,,---,0.55,VWS V14.01,2013-06-22 21:09:00,
2013-06-22 17:10:00,76.6,60.3,30.18,SE,129,8.7,8.7,57,0.00,,---,0.55,VWS V14.01,2013-06-22 21:10:00,
2013-06-22 17:12:00,76.6,60.3,30.18,ESE,119,8.7,11.0,57,0.00,,---,0.55,VWS V14.01,2013-06-22 21:12:00,
2013-06-22 17:13:00,76.6,60.3,30.18,ESE,113,8.1,8.7,57,0.00,,---,0.55,VWS V14.01,2013-06-22 21:13:00,
2013-06-22 17:14:00,76.6,60.3,30.18,SE,126,7.6,7.6,57,0.00,,---,0.55,VWS V14.01,2013-06-22 21:14:00,
2013-06-22 17:15:00,76.6,60.3,30.18,East,83,12.3,12.3,57,0.00,,---,0.55,VWS V14.01,2013-06-22 21:15:00,
2013-06-22 17:17:00,76.6,60.3,30.18,SE,133,5.8,12.3,57,0.00,,---,0.55,VWS V14.01,2013-06-22 21:17:00,
2013-06-22 17:18:00,76.6,60.3,30.18,ESE,102,5.8,8.3,57,0.00,,---,0.55,VWS V14.01,2013-06-22 21:18:00,
2013-06-22 17:19:00,76.6,60.3,30.18,East,88,10.1,10.1,57,0.00,,---,0.55,VWS V14.01,2013-06-22 21:19:00,
2013-06-22 17:20:00,76.6,60.3,30.18,ENE,76,5.4,5.4,57,0.00,,---,0.55,VWS V14.01,2013-06-22 21:20:00,
2013-06-22 17:22:00,76.6,60.3,30.18,ESE,113,8.7,8.7,57,0.00,,---,0.55,VWS V14.01,2013-06-22 21:22:00,
2013-06-22 17:23:00,76.6,61.2,30.18,East,99,2.7,8.7,59,0.00,,---,0.55,VWS V14.01,2013-06-22 21:23:00,
2013-06-22 17:24:00,76.6,61.2,30.18,SSE,163,7.6,7.6,59,0.00,,---,0.55,VWS V14.01,2013-06-22 21:24:00,
2013-06-22 17:25:00,76.6,61.2,30.18,SE,126,5.8,8.1,59,0.00,,---,0.55,VWS V14.01,2013-06-22 21:25:00,
2013-06-22 17:27:00,76.6,61.2,30.18,SE,136,8.1,8.3,59,0.00,,---,0.55,VWS V14.01,2013-06-22 21:27:00,
2013-06-22 17:28:00,76.6,60.8,30.18,East,101,6.3,8.1,58,0.00,,---,0.55,VWS V14.01,2013-06-22 21:28:00,
2013-06-22 17:29:00,76.6,60.8,30.18,ESE,110,4.9,4.9,58,0.00,,---,0.55,VWS V14.01,2013-06-22 21:29:00,
2013-06-22 17:31:00,76.6,61.2,30.18,ESE,115,5.4,5.4,59,0.00,,---,0.55,VWS V14.01,2013-06-22 21:31:00,
2013-06-22 17:32:00,76.6,61.2,30.18,SE,133,4.0,5.4,59,0.00,,---,0.55,VWS V14.01,2013-06-22 21:32:00,
2013-06-22 17:33:00,76.6,61.2,30.18,ESE,108,10.5,10.5,59,0.00,,---,0.55,VWS V14.01,2013-06-22 21:33:00,
2013-06-22 17:34:00,76.6,60.8,30.18,East,92,6.3,6.3,58,0.00,,---,0.55,VWS V14.01,2013-06-22 21:34:00,
2013-06-22 17:36:00,76.6,60.8,30.18,ESE,120,5.4,7.6,58,0.00,,---,0.55,VWS V14.01,2013-06-22 21:36:00,
2013-06-22 17:37:00,76.8,60.9,30.18,ENE,77,7.6,7.6,58,0.00,,---,0.55,VWS V14.01,2013-06-22 21:37:00,
2013-06-22 17:38:00,76.8,60.9,30.18,ESE,112,5.4,5.4,58,0.00,,---,0.55,VWS V14.01,2013-06-22 21:38:00,
2013-06-22 17:39:00,76.8,61.4,30.18,ESE,114,5.8,7.6,59,0.00,,---,0.55,VWS V14.01,2013-06-22 21:39:00,
2013-06-22 17:41:00,76.8,61.4,30.18,SE,145,4.9,4.9,59,0.00,,---,0.55,VWS V14.01,2013-06-22 21:41:00,
2013-06-22 17:42:00,76.8,61.4,30.18,ESE,111,8.1,8.1,59,0.00,,---,0.55,VWS V14.01,2013-06-22 21:42:00,
2013-06-22 17:43:00,76.8,61.4,30.18,East,100,8.7,8.7,59,0.00,,---,0.55,VWS V14.01,2013-06-22 21:43:00,
2013-06-22 17:44:00,76.8,61.4,30.18,SSE,168,6.3,7.6,59,0.00,,---,0.55,VWS V14.01,2013-06-22 21:44:00,
2013-06-22 17:46:00,76.8,61.4,30.18,ESE,117,8.3,8.3,59,0.00,,---,0.55,VWS V14.01,2013-06-22 21:46:00,
2013-06-22 17:47:00,76.8,61.4,30.18,SE,146,8.1,8.1,59,0.00,,---,0.55,VWS V14.01,2013-06-22 21:47:00,
2013-06-22 17:48:00,76.8,61.4,30.18,East,97,6.3,6.3,59,0.00,,---,0.55,VWS V14.01,2013-06-22 21:48:00,
2013-06-22 17:49:00,76.8,61.4,30.18,ESE,110,6.3,6.3,59,0.00,,---,0.55,VWS V14.01,2013-06-22 21:49:00,
2013-06-22 17:51:00,76.8,60.5,30.18,ESE,108,3.1,3.1,57,0.00,,---,0.55,VWS V14.01,2013-06-22 21:51:00,
2013-06-22 17:52:00,76.8,60.5,30.18,ESE,102,9.6,9.6,57,0.00,,---,0.55,VWS V14.01,2013-06-22 21:52:00,
2013-06-22 17:53:00,76.8,60.5,30.18,ESE,111,8.3,9.6,57,0.00,,---,0.55,VWS V14.01,2013-06-22 21:53:00,
2013-06-22 17:54:00,76.8,60.0,30.18,SSE,165,5.8,5.8,56,0.00,,---,0.55,VWS V14.01,2013-06-22 21:54:00,
2013-06-22 17:56:00,76.8,60.0,30.18,ESE,104,5.4,5.4,56,0.00,,---,0.55,VWS V14.01,2013-06-22 21:56:00,
2013-06-22 17:57:00,76.8,59.5,30.18,ESE,110,6.3,6.3,55,0.00,,---,0.55,VWS V14.01,2013-06-22 21:57:00,
2013-06-22 17:58:00,76.8,59.5,30.18,East,92,7.6,7.6,55,0.00,,---,0.55,VWS V14.01,2013-06-22 21:58:00,
2013-06-22 17:59:00,77.0,59.6,30.18,East,96,3.1,5.8,55,0.00,,---,0.55,VWS V14.01,2013-06-22 21:59:00,
2013-06-22 18:01:00,77.0,59.6,30.18,SSE,148,6.3,6.3,55,0.00,,---,0.55,VWS V14.01,2013-06-22 22:01:00,
2013-06-22 18:02:00,77.0,59.6,30.18,East,91,8.1,8.1,55,0.00,,---,0.55,VWS V14.01,2013-06-22 22:02:00,
2013-06-22 18:03:00,77.0,59.1,30.18,SE,135,6.3,8.1,54,0.00,,---,0.55,VWS V14.01,2013-06-22 22:03:00,
2013-06-22 18:05:00,77.0,59.6,30.18,ESE,109,8.1,10.1,55,0.00,,---,0.55,VWS V14.01,2013-06-22 22:05:00,
2013-06-22 18:06:00,76.8,59.5,30.18,SE,145,10.5,10.5,55,0.00,,---,0.55,VWS V14.01,2013-06-22 22:06:00,
2013-06-22 18:07:00,76.8,59.5,30.18,ESE,106,5.8,10.5,55,0.00,,---,0.55,VWS V14.01,2013-06-22 22:07:00,
2013-06-22 18:08:00,76.8,59.5,30.18,ESE,106,5.8,10.5,55,0.00,,---,0.55,VWS V14.01,2013-06-22 22:08:00,
2013-06-22 18:10:00,76.8,60.0,30.18,SE,140,10.1,10.1,56,0.00,,---,0.55,VWS V14.01,2013-06-22 22:10:00,
2013-06-22 18:11:00,76.8,60.0,30.18,East,96,6.3,8.3,56,0.00,,---,0.55,VWS V14.01,2013-06-22 22:11:00,
2013-06-22 18:12:00,76.8,60.0,30.18,SE,125,6.3,10.5,56,0.00,,---,0.55,VWS V14.01,2013-06-22 22:12:00,
2013-06-22 18:13:00,76.8,60.0,30.18,SE,125,6.3,10.5,56,0.00,,---,0.55,VWS V14.01,2013-06-22 22:13:00,
2013-06-22 18:15:00,76.8,60.5,30.18,SE,143,8.1,8.1,57,0.00,,---,0.55,VWS V14.01,2013-06-22 22:15:00,
2013-06-22 18:16:00,76.8,60.5,30.18,ESE,104,8.3,8.3,57,0.00,,---,0.55,VWS V14.01,2013-06-22 22:16:00,
2013-06-22 18:17:00,76.8,60.9,30.18,SE,134,5.4,8.3,58,0.00,,---,0.55,VWS V14.01,2013-06-22 22:17:00,
2013-06-22 18:18:00,76.8,60.9,30.18,ESE,106,5.4,5.4,58,0.00,,---,0.55,VWS V14.01,2013-06-22 22:18:00,
2013-06-22 18:20:00,76.8,60.9,30.18,East,87,6.3,10.5,58,0.00,,---,0.55,VWS V14.01,2013-06-22 22:20:00,
2013-06-22 18:21:00,76.6,60.8,30.18,SE,146,8.7,8.7,58,0.00,,---,0.55,VWS V14.01,2013-06-22 22:21:00,
2013-06-22 18:22:00,76.6,60.8,30.18,ESE,122,5.8,5.8,58,0.00,,---,0.55,VWS V14.01,2013-06-22 22:22:00,
2013-06-22 18:23:00,76.6,60.8,30.18,ESE,108,12.3,12.3,58,0.00,,---,0.55,VWS V14.01,2013-06-22 22:23:00,
2013-06-22 18:25:00,76.6,60.8,30.18,ESE,123,8.7,8.7,58,0.00,,---,0.55,VWS V14.01,2013-06-22 22:25:00,
2013-06-22 18:26:00,76.6,60.8,30.18,ESE,110,8.3,8.7,58,0.00,,---,0.55,VWS V14.01,2013-06-22 22:26:00,
2013-06-22 18:27:00,76.6,61.2,30.18,SE,134,5.8,8.3,59,0.00,,---,0.55,VWS V14.01,2013-06-22 22:27:00,
2013-06-22 18:28:00,76.6,61.2,30.18,SE,131,8.1,8.1,59,0.00,,---,0.55,VWS V14.01,2013-06-22 22:28:00,
2013-06-22 18:30:00,76.6,61.7,30.18,SSE,151,8.3,8.3,60,0.00,,---,0.55,VWS V14.01,2013-06-22 22:30:00,
2013-06-22 18:31:00,76.8,62.8,30.18,SE,125,6.3,8.1,62,0.00,,---,0.55,VWS V14.01,2013-06-22 22:31:00,
2013-06-22 18:33:00,76.8,62.8,30.18,ESE,122,4.5,5.8,62,0.00,,---,0.55,VWS V14.01,2013-06-22 22:33:00,
2013-06-22 18:35:00,76.8,62.8,30.15,ESE,111,5.4,5.8,62,0.00,,---,0.55,VWS V14.01,2013-06-22 22:35:00,
2013-06-22 18:36:00,76.6,60.8,30.15,SE,136,5.8,8.1,58,0.00,,---,0.55,VWS V14.01,2013-06-22 22:36:00,
2013-06-22 18:38:00,76.6,60.8,30.15,ESE,122,8.3,10.1,58,0.00,,---,0.55,VWS V14.01,2013-06-22 22:38:00,
2013-06-22 18:40:00,76.6,60.8,30.15,SE,126,13.6,13.6,58,0.00,,---,0.55,VWS V14.01,2013-06-22 22:40:00,
2013-06-22 18:42:00,76.5,61.1,30.15,SSE,149,4.0,8.7,59,0.00,,---,0.55,VWS V14.01,2013-06-22 22:42:00,
2013-06-22 18:43:00,76.5,61.6,30.15,East,81,5.8,5.8,60,0.00,,---,0.55,VWS V14.01,2013-06-22 22:43:00,
2013-06-22 18:44:00,76.5,61.6,30.15,SE,144,7.6,8.7,60,0.00,,---,0.55,VWS V14.01,2013-06-22 22:44:00,
2013-06-22 18:45:00,76.6,62.2,30.15,ESE,122,7.6,7.6,61,0.00,,---,0.00,VWS V14.01,2013-06-22 22:45:00,
2013-06-22 18:47:00,76.6,62.2,30.15,SE,143,5.8,10.5,61,0.00,,---,0.55,VWS V14.01,2013-06-22 22:47:00,
2013-06-22 18:48:00,76.6,62.2,30.15,ESE,119,8.7,11.0,61,0.00,,---,0.55,VWS V14.01,2013-06-22 22:48:00,
2013-06-22 18:49:00,76.6,62.7,30.15,ESE,113,5.4,5.4,62,0.00,,---,0.55,VWS V14.01,2013-06-22 22:49:00,
2013-06-22 18:50:00,76.6,62.7,30.15,SE,139,5.8,7.6,62,0.00,,---,0.55,VWS V14.01,2013-06-22 22:50:00,
2013-06-22 18:52:00,76.6,63.1,30.15,South,189,6.3,6.3,63,0.00,,---,0.55,VWS V14.01,2013-06-22 22:52:00,
2013-06-22 18:53:00,76.6,63.1,30.15,ESE,108,8.1,8.1,63,0.00,,---,0.55,VWS V14.01,2013-06-22 22:53:00,
2013-06-22 18:54:00,76.6,63.1,30.15,ESE,108,8.1,8.1,63,0.00,,---,0.55,VWS V14.01,2013-06-22 22:54:00,
2013-06-22 18:55:00,76.6,63.1,30.15,East,89,8.3,8.3,63,0.00,,---,0.55,VWS V14.01,2013-06-22 22:55:00,
2013-06-22 18:57:00,76.6,63.1,30.15,SE,144,4.0,7.6,63,0.00,,---,0.55,VWS V14.01,2013-06-22 22:57:00,
2013-06-22 18:58:00,76.6,63.1,30.15,ESE,121,4.0,4.0,63,0.00,,---,0.55,VWS V14.01,2013-06-22 22:58:00,
2013-06-22 18:59:00,76.6,63.1,30.15,South,169,5.8,5.8,63,0.00,,---,0.55,VWS V14.01,2013-06-22 22:59:00,
2013-06-22 19:00:00,76.5,62.9,30.15,ESE,102,6.7,6.7,63,0.00,,---,0.55,VWS V14.01,2013-06-22 23:00:00,
2013-06-22 19:02:00,76.5,62.9,30.15,South,169,4.9,5.4,63,0.00,,---,0.55,VWS V14.01,2013-06-22 23:02:00,
2013-06-22 19:03:00,76.5,62.9,30.15,SSE,150,5.8,5.8,63,0.00,,---,0.55,VWS V14.01,2013-06-22 23:03:00,
2013-06-22 19:04:00,76.5,62.9,30.15,SE,140,6.3,6.3,63,0.00,,---,0.55,VWS V14.01,2013-06-22 23:04:00,
2013-06-22 19:05:00,76.5,62.9,30.15,SE,140,6.3,6.3,63,0.00,,---,0.55,VWS V14.01,2013-06-22 23:05:00,
2013-06-22 19:07:00,76.5,62.9,30.18,ESE,113,5.4,6.3,63,0.00,,---,0.55,VWS V14.01,2013-06-22 23:07:00,
2013-06-22 19:08:00,76.5,62.9,30.18,SE,125,6.7,6.7,63,0.00,,---,0.55,VWS V14.01,2013-06-22 23:08:00,
2013-06-22 19:09:00,76.5,62.9,30.18,SSE,147,5.8,8.1,63,0.00,,---,0.55,VWS V14.01,2013-06-22 23:09:00,
2013-06-22 19:10:00,76.5,62.9,30.18,SE,125,4.0,5.8,63,0.00,,---,0.55,VWS V14.01,2013-06-22 23:10:00,
2013-06-22 19:12:00,76.5,63.4,30.18,ENE,69,5.4,8.1,64,0.00,,---,0.55,VWS V14.01,2013-06-22 23:12:00,
2013-06-22 19:13:00,76.5,63.8,30.18,ESE,114,6.3,6.3,65,0.00,,---,0.55,VWS V14.01,2013-06-22 23:13:00,
2013-06-22 19:14:00,76.5,63.8,30.18,East,101,4.0,4.9,65,0.00,,---,0.55,VWS V14.01,2013-06-22 23:14:00,
2013-06-22 19:15:00,76.5,63.8,30.18,ESE,119,8.3,10.1,65,0.00,,---,0.55,VWS V14.01,2013-06-22 23:15:00,
2013-06-22 19:17:00,76.5,64.7,30.18,SE,142,8.7,8.7,67,0.00,,---,0.55,VWS V14.01,2013-06-22 23:17:00,
2013-06-22 19:18:00,76.5,64.7,30.18,ESE,120,3.1,5.4,67,0.00,,---,0.55,VWS V14.01,2013-06-22 23:18:00,
2013-06-22 19:19:00,76.5,64.7,30.18,ESE,120,3.1,5.4,67,0.00,,---,0.55,VWS V14.01,2013-06-22 23:19:00,
2013-06-22 19:20:00,76.5,65.1,30.18,SE,142,6.3,6.3,68,0.00,,---,0.55,VWS V14.01,2013-06-22 23:20:00,
2013-06-22 19:22:00,76.5,65.1,30.18,SE,136,5.4,5.4,68,0.00,,---,0.55,VWS V14.01,2013-06-22 23:22:00,
2013-06-22 19:23:00,76.5,65.1,30.18,SE,136,5.4,5.4,68,0.00,,---,0.55,VWS V14.01,2013-06-22 23:23:00,
2013-06-22 19:24:00,76.5,65.5,30.18,SE,132,3.1,3.1,69,0.00,,---,0.55,VWS V14.01,2013-06-22 23:24:00,
2013-06-22 19:26:00,76.5,66.0,30.18,ESE,113,4.0,8.7,70,0.00,,---,0.55,VWS V14.01,2013-06-22 23:26:00,
2013-06-22 19:27:00,76.5,66.0,30.18,SE,136,6.3,6.3,70,0.00,,---,0.55,VWS V14.01,2013-06-22 23:27:00,
2013-06-22 19:28:00,76.5,66.4,30.18,ESE,114,5.4,5.4,71,0.00,,---,0.55,VWS V14.01,2013-06-22 23:28:00,
2013-06-22 19:29:00,76.5,66.8,30.18,SSE,154,5.4,5.4,72,0.00,,---,0.55,VWS V14.01,2013-06-22 23:29:00,
2013-06-22 19:31:00,76.5,66.8,30.18,SE,140,6.3,7.6,72,0.00,,---,0.55,VWS V14.01,2013-06-22 23:31:00,
2013-06-22 19:32:00,76.5,67.2,30.18,SE,140,6.3,6.3,73,0.00,,---,0.55,VWS V14.01,2013-06-22 23:32:00,
2013-06-22 19:33:00,76.5,67.2,30.18,SSE,156,4.5,4.5,73,0.00,,---,0.55,VWS V14.01,2013-06-22 23:33:00,
2013-06-22 19:34:00,76.5,67.6,30.18,SSE,150,8.7,8.7,74,0.00,,---,0.55,VWS V14.01,2013-06-22 23:34:00,
2013-06-22 19:36:00,76.5,67.9,30.15,ESE,123,4.0,4.0,75,0.00,,---,0.55,VWS V14.01,2013-06-22 23:36:00,
2013-06-22 19:37:00,76.5,67.9,30.15,SSE,168,5.4,6.3,75,0.00,,---,0.55,VWS V14.01,2013-06-22 23:37:00,
2013-06-22 19:38:00,76.5,67.9,30.15,SE,128,6.3,6.3,75,0.00,,---,0.55,VWS V14.01,2013-06-22 23:38:00,
2013-06-22 19:39:00,76.5,67.9,30.15,East,95,5.4,5.4,75,0.00,,---,0.55,VWS V14.01,2013-06-22 23:39:00,
2013-06-22 19:40:00,76.5,67.9,30.15,ESE,105,4.0,4.0,75,0.00,,---,0.55,VWS V14.01,2013-06-22 23:40:00,
2013-06-22 19:41:00,76.5,68.7,30.15,SE,128,6.3,6.3,77,0.00,,---,0.55,VWS V14.01,2013-06-22 23:41:00,
2013-06-22 19:42:00,76.5,68.7,30.15,SSE,148,5.4,6.3,77,0.00,,---,0.55,VWS V14.01,2013-06-22 23:42:00,
2013-06-22 19:43:00,76.5,68.7,30.15,ESE,113,5.8,5.8,77,0.00,,---,0.55,VWS V14.01,2013-06-22 23:43:00,
2013-06-22 19:44:00,76.5,68.7,30.15,SE,143,4.9,5.8,77,0.00,,---,0.00,VWS V14.01,2013-06-22 23:44:00,
2013-06-22 19:45:00,76.5,68.7,30.15,SSE,164,5.4,5.4,77,0.00,,---,0.55,VWS V14.01,2013-06-22 23:45:00,
2013-06-22 19:46:00,76.5,68.7,30.15,SE,133,6.7,6.7,77,0.00,,---,0.55,VWS V14.01,2013-06-22 23:46:00,
2013-06-22 19:47:00,76.3,68.2,30.15,SE,133,6.7,6.7,76,0.00,,---,0.55,VWS V14.01,2013-06-22 23:47:00,
2013-06-22 19:48:00,76.3,68.2,30.15,SSE,158,6.3,6.3,76,0.00,,---,0.55,VWS V14.01,2013-06-22 23:48:00,
2013-06-22 19:49:00,76.3,68.2,30.15,SE,140,5.4,5.4,76,0.00,,---,0.55,VWS V14.01,2013-06-22 23:49:00,
2013-06-22 19:50:00,76.3,68.2,30.15,ESE,116,5.4,6.7,76,0.00,,---,0.55,VWS V14.01,2013-06-22 23:50:00,
2013-06-22 19:51:00,76.3,68.2,30.15,ESE,119,5.8,5.8,76,0.00,,---,0.55,VWS V14.01,2013-06-22 23:51:00,
2013-06-22 19:52:00,76.3,68.2,30.15,ESE,119,5.8,5.8,76,0.00,,---,0.55,VWS V14.01,2013-06-22 23:52:00,
2013-06-22 19:53:00,76.3,68.2,30.15,SE,143,5.4,10.5,76,0.00,,---,0.55,VWS V14.01,2013-06-22 23:53:00,
2013-06-22 19:54:00,76.3,68.2,30.15,South,174,8.1,9.2,76,0.00,,---,0.55,VWS V14.01,2013-06-22 23:54:00,
2013-06-22 19:55:00,76.3,68.2,30.15,SE,146,5.8,5.8,76,0.00,,---,0.55,VWS V14.01,2013-06-22 23:55:00,
2013-06-22 19:56:00,76.1,68.0,30.15,ESE,119,5.8,7.6,76,0.00,,---,0.55,VWS V14.01,2013-06-22 23:56:00,
2013-06-22 19:57:00,76.1,68.0,30.15,ESE,103,6.7,6.7,76,0.00,,---,0.55,VWS V14.01,2013-06-22 23:57:00,
2013-06-22 19:58:00,76.1,67.6,30.15,South,191,4.0,8.7,75,0.00,,---,0.55,VWS V14.01,2013-06-22 23:58:00,
2013-06-22 19:59:00,76.1,67.6,30.15,SW,225,3.1,8.7,75,0.00,,---,0.55,VWS V14.01,2013-06-22 23:59:00,
2013-06-22 20:00:00,76.1,67.6,30.15,SSE,150,4.0,4.0,75,0.00,,---,0.55,VWS V14.01,2013-06-23 00:00:00,
2013-06-22 20:01:00,76.1,67.6,30.15,SSE,154,5.8,6.3,75,0.00,,---,0.55,VWS V14.01,2013-06-23 00:01:00,
2013-06-22 20:02:00,75.9,67.4,30.15,SE,140,5.4,5.4,75,0.00,,---,0.55,VWS V14.01,2013-06-23 00:02:00,
2013-06-22 20:03:00,75.9,67.4,30.15,South,178,4.0,6.3,75,0.00,,---,0.55,VWS V14.01,2013-06-23 00:03:00,
2013-06-22 20:04:00,75.9,67.4,30.15,SSW,195,4.0,4.0,75,0.00,,---,0.55,VWS V14.01,2013-06-23 00:04:00,
2013-06-22 20:05:00,75.9,67.4,30.15,SSE,152,7.6,7.6,75,0.00,,---,0.55,VWS V14.01,2013-06-23 00:05:00,
2013-06-22 20:06:00,75.9,67.4,30.15,South,180,2.7,5.4,75,0.00,,---,0.55,VWS V14.01,2013-06-23 00:06:00,
2013-06-22 20:07:00,75.9,67.4,30.15,South,180,2.7,2.7,75,0.00,,---,0.55,VWS V14.01,2013-06-23 00:07:00,
2013-06-22 20:08:00,75.9,67.0,30.15,SSE,148,4.0,6.3,74,0.00,,---,0.55,VWS V14.01,2013-06-23 00:08:00,
2013-06-22 20:09:00,75.9,67.0,30.15,SSE,163,4.9,6.3,74,0.00,,---,0.55,VWS V14.01,2013-06-23 00:09:00,
2013-06-22 20:10:00,75.9,67.0,30.15,SSE,153,4.0,4.9,74,0.00,,---,0.55,VWS V14.01,2013-06-23 00:10:00,
2013-06-22 20:12:00,75.9,67.0,30.15,SSE,154,5.4,5.4,74,0.00,,---,0.55,VWS V14.01,2013-06-23 00:12:00,
2013-06-22 20:13:00,75.9,67.0,30.15,SSE,167,3.6,3.6,74,0.00,,---,0.55,VWS V14.01,2013-06-23 00:13:00,
2013-06-22 20:14:00,75.9,67.0,30.15,SSE,152,7.6,7.6,74,0.00,,---,0.55,VWS V14.01,2013-06-23 00:14:00,
2013-06-22 20:15:00,75.9,67.0,30.15,SE,139,6.3,7.6,74,0.00,,---,0.55,VWS V14.01,2013-06-23 00:15:00,
2013-06-22 20:17:00,75.9,67.0,30.15,SSE,162,8.1,8.1,74,0.00,,---,0.55,VWS V14.01,2013-06-23 00:17:00,
2013-06-22 20:18:00,75.9,67.0,30.15,SE,143,3.1,5.8,74,0.00,,---,0.55,VWS V14.01,2013-06-23 00:18:00,
2013-06-22 20:20:00,75.9,67.0,30.15,SE,131,5.4,5.4,74,0.00,,---,0.55,VWS V14.01,2013-06-23 00:20:00,
2013-06-22 20:22:00,75.9,67.0,30.15,SW,226,5.4,5.4,74,0.00,,---,0.55,VWS V14.01,2013-06-23 00:22:00,
2013-06-22 20:23:00,75.9,67.0,30.15,South,183,3.1,5.4,74,0.00,,---,0.55,VWS V14.01,2013-06-23 00:23:00,
2013-06-22 20:25:00,75.9,67.0,30.15,SE,126,5.4,5.4,74,0.00,,---,0.55,VWS V14.01,2013-06-23 00:25:00,
2013-06-22 20:27:00,75.9,67.0,30.15,South,182,5.4,8.1,74,0.00,,---,0.55,VWS V14.01,2013-06-23 00:27:00,
2013-06-22 20:29:00,75.9,66.7,30.15,SSE,156,4.0,4.0,73,0.00,,---,0.55,VWS V14.01,2013-06-23 00:29:00,
2013-06-22 20:30:00,75.9,66.7,30.15,SSE,168,5.4,5.4,73,0.00,,---,0.55,VWS V14.01,2013-06-23 00:30:00,
2013-06-22 20:32:00,75.9,66.7,30.15,SSE,162,5.4,7.2,73,0.00,,---,0.55,VWS V14.01,2013-06-23 00:32:00,
2013-06-22 20:34:00,75.9,66.7,30.15,South,171,4.0,4.0,73,0.00,,---,0.55,VWS V14.01,2013-06-23 00:34:00,
2013-06-22 20:35:00,75.9,66.7,30.15,SE,145,2.7,2.7,73,0.00,,---,0.55,VWS V14.01,2013-06-23 00:35:00,
2013-06-22 20:37:00,75.9,66.7,30.15,SSE,148,6.3,6.3,73,0.00,,---,0.55,VWS V14.01,2013-06-23 00:37:00,
2013-06-22 20:39:00,75.9,67.0,30.15,South,190,4.9,6.3,74,0.00,,---,0.55,VWS V14.01,2013-06-23 00:39:00,
2013-06-22 20:40:00,75.9,67.4,30.15,SE,133,8.3,8.3,75,0.00,,---,0.55,VWS V14.01,2013-06-23 00:40:00,
2013-06-22 20:41:00,75.9,67.4,30.15,SE,139,11.9,11.9,75,0.00,,---,0.55,VWS V14.01,2013-06-23 00:41:00,
2013-06-22 20:42:00,75.9,67.8,30.15,SSE,159,5.4,5.4,76,0.00,,---,0.55,VWS V14.01,2013-06-23 00:42:00,
2013-06-22 20:44:00,75.9,67.8,30.15,SSE,158,5.8,5.8,76,0.00,,---,0.55,VWS V14.01,2013-06-23 00:44:00,
2013-06-22 20:45:00,75.9,67.8,30.15,SE,130,4.0,4.0,76,0.00,,---,0.55,VWS V14.01,2013-06-23 00:45:00,
2013-06-22 20:46:00,75.9,67.8,30.15,South,188,5.8,5.8,76,0.00,,---,0.55,VWS V14.01,2013-06-23 00:46:00,
2013-06-22 20:47:00,75.9,67.8,30.15,South,182,4.9,4.9,76,0.00,,---,0.55,VWS V14.01,2013-06-23 00:47:00,
2013-06-22 20:49:00,75.9,67.4,30.15,SSE,158,2.7,6.3,75,0.00,,---,0.55,VWS V14.01,2013-06-23 00:49:00,
2013-06-22 20:50:00,75.9,67.4,30.15,ESE,121,4.9,4.9,75,0.00,,---,0.55,VWS V14.01,2013-06-23 00:50:00,
2013-06-22 20:51:00,75.7,67.3,30.15,SSE,160,6.3,6.3,75,0.00,,---,0.55,VWS V14.01,2013-06-23 00:51:00,
2013-06-22 20:52:00,75.7,67.3,30.15,South,181,4.9,5.8,75,0.00,,---,0.55,VWS V14.01,2013-06-23 00:52:00,
2013-06-22 20:54:00,75.7,67.3,30.15,South,191,4.0,4.0,75,0.00,,---,0.55,VWS V14.01,2013-06-23 00:54:00,
2013-06-22 20:55:00,75.7,67.3,30.15,SE,142,5.4,5.4,75,0.00,,---,0.55,VWS V14.01,2013-06-23 00:55:00,
2013-06-22 20:56:00,75.6,67.1,30.15,SSE,157,4.0,4.0,75,0.00,,---,0.55,VWS V14.01,2013-06-23 00:56:00,
2013-06-22 20:57:00,75.6,67.1,30.15,South,177,4.9,4.9,75,0.00,,---,0.55,VWS V14.01,2013-06-23 00:57:00,
2013-06-22 20:59:00,75.6,67.1,30.15,South,169,8.3,8.3,75,0.00,,---,0.55,VWS V14.01,2013-06-23 00:59:00,
2013-06-22 21:00:00,75.6,67.1,30.15,ESE,119,5.8,8.3,75,0.00,,---,0.55,VWS V14.01,2013-06-23 01:00:00,
2013-06-22 21:01:00,75.4,66.9,30.15,South,175,4.0,4.0,75,0.00,,---,0.55,VWS V14.01,2013-06-23 01:01:00,
2013-06-22 21:02:00,75.4,66.9,30.15,SSE,157,4.9,4.9,75,0.00,,---,0.55,VWS V14.01,2013-06-23 01:02:00,
2013-06-22 21:03:00,75.4,66.9,30.15,SSW,207,6.3,6.3,75,0.00,,---,0.55,VWS V14.01,2013-06-23 01:03:00,
2013-06-22 21:04:00,75.4,66.9,30.15,SSE,148,5.4,6.3,75,0.00,,---,0.55,VWS V14.01,2013-06-23 01:04:00,
2013-06-22 21:05:00,75.4,66.9,30.15,SE,125,5.4,5.4,75,0.00,,---,0.55,VWS V14.01,2013-06-23 01:05:00,
2013-06-22 21:06:00,75.4,66.9,30.15,South,186,5.8,5.8,75,0.00,,---,0.55,VWS V14.01,2013-06-23 01:06:00,
2013-06-22 21:07:00,75.4,66.9,30.15,SSE,161,5.4,5.4,75,0.00,,---,0.55,VWS V14.01,2013-06-23 01:07:00,
2013-06-22 21:08:00,75.6,67.1,30.15,SSE,153,4.9,5.4,75,0.00,,---,0.55,VWS V14.01,2013-06-23 01:08:00,
2013-06-22 21:09:00,75.6,67.1,30.15,SSE,153,4.9,4.9,75,0.00,,---,0.55,VWS V14.01,2013-06-23 01:09:00,
2013-06-22 21:10:00,75.6,67.5,30.15,South,172,4.0,4.0,76,0.00,,---,0.55,VWS V14.01,2013-06-23 01:10:00,
2013-06-22 21:11:00,75.6,67.5,30.15,ESE,109,8.3,8.3,76,0.00,,---,0.55,VWS V14.01,2013-06-23 01:11:00,
2013-06-22 21:12:00,75.6,67.5,30.15,South,186,4.0,6.3,76,0.00,,---,0.55,VWS V14.01,2013-06-23 01:12:00,
2013-06-22 21:13:00,75.6,67.5,30.15,SSE,158,0.0,6.3,76,0.00,,---,0.55,VWS V14.01,2013-06-23 01:13:00,
2013-06-22 21:14:00,75.6,67.5,30.15,SE,125,4.0,4.0,76,0.00,,---,0.55,VWS V14.01,2013-06-23 01:14:00,
2013-06-22 21:15:00,75.6,67.5,30.15,SE,135,6.3,6.3,76,0.00,,---,0.55,VWS V14.01,2013-06-23 01:15:00,
2013-06-22 21:16:00,75.6,67.5,30.15,South,170,5.4,5.8,76,0.00,,---,0.55,VWS V14.01,2013-06-23 01:16:00,
2013-06-22 21:17:00,75.6,67.5,30.15,South,170,5.4,5.4,76,0.00,,---,0.55,VWS V14.01,2013-06-23 01:17:00,
2013-06-22 21:18:00,75.6,67.5,30.15,SSW,198,3.6,3.6,76,0.00,,---,0.55,VWS V14.01,2013-06-23 01:18:00,
2013-06-22 21:19:00,75.6,67.5,30.15,SSE,160,2.7,3.1,76,0.00,,---,0.55,VWS V14.01,2013-06-23 01:19:00,
2013-06-22 21:20:00,75.7,67.6,30.15,ESE,108,5.4,5.4,76,0.00,,---,0.55,VWS V14.01,2013-06-23 01:20:00,
2013-06-22 21:21:00,75.7,67.6,30.15,SE,146,4.0,4.0,76,0.00,,---,0.55,VWS V14.01,2013-06-23 01:21:00,
2013-06-22 21:22:00,75.7,67.6,30.15,ESE,123,3.6,4.9,76,0.00,,---,0.55,VWS V14.01,2013-06-23 01:22:00,
2013-06-22 21:23:00,75.7,67.6,30.15,ESE,123,3.6,3.6,76,0.00,,---,0.55,VWS V14.01,2013-06-23 01:23:00,
2013-06-22 21:24:00,75.7,67.6,30.15,South,186,5.4,5.4,76,0.00,,---,0.55,VWS V14.01,2013-06-23 01:24:00,
2013-06-22 21:25:00,75.7,67.6,30.15,South,179,3.1,3.1,76,0.00,,---,0.55,VWS V14.01,2013-06-23 01:25:00,
2013-06-22 21:26:00,75.7,68.0,30.15,SSE,163,8.1,8.1,77,0.00,,---,0.55,VWS V14.01,2013-06-23 01:26:00,
2013-06-22 21:27:00,75.7,68.0,30.15,South,178,5.4,8.1,77,0.00,,---,0.55,VWS V14.01,2013-06-23 01:27:00,
2013-06-22 21:28:00,75.6,67.8,30.15,SSE,148,8.1,8.1,77,0.00,,---,0.55,VWS V14.01,2013-06-23 01:28:00,
2013-06-22 21:29:00,75.6,67.8,30.15,SE,133,5.4,5.4,77,0.00,,---,0.55,VWS V14.01,2013-06-23 01:29:00,
2013-06-22 21:30:00,75.6,67.8,30.15,ESE,120,2.7,5.4,77,0.00,,---,0.55,VWS V14.01,2013-06-23 01:30:00,
2013-06-22 21:31:00,75.6,67.8,30.15,South,176,4.0,4.0,77,0.00,,---,0.55,VWS V14.01,2013-06-23 01:31:00,
2013-06-22 21:32:00,75.6,67.8,30.15,South,187,5.4,5.4,77,0.00,,---,0.55,VWS V14.01,2013-06-23 01:32:00,
2013-06-22 21:33:00,75.6,67.8,30.15,SE,124,8.1,8.1,77,0.00,,---,0.55,VWS V14.01,2013-06-23 01:33:00,
2013-06-22 21:34:00,75.6,67.8,30.15,SSE,165,4.9,6.3,77,0.00,,---,0.55,VWS V14.01,2013-06-23 01:34:00,
2013-06-22 21:35:00,75.6,67.8,30.15,South,182,5.4,5.4,77,0.00,,---,0.55,VWS V14.01,2013-06-23 01:35:00,
2013-06-22 21:37:00,75.6,67.8,30.15,SSE,149,4.9,4.9,77,0.00,,---,0.55,VWS V14.01,2013-06-23 01:37:00,
2013-06-22 21:38:00,75.6,67.8,30.15,SE,145,6.3,6.3,77,0.00,,---,0.55,VWS V14.01,2013-06-23 01:38:00,
2013-06-22 21:39:00,75.4,67.7,30.15,SE,140,4.0,5.4,77,0.00,,---,0.55,VWS V14.01,2013-06-23 01:39:00,
2013-06-22 21:40:00,75.4,67.7,30.15,South,177,5.8,5.8,77,0.00,,---,0.55,VWS V14.01,2013-06-23 01:40:00,
2013-06-22 21:42:00,75.4,67.7,30.15,SSE,164,4.0,6.3,77,0.00,,---,0.55,VWS V14.01,2013-06-23 01:42:00,
2013-06-22 21:43:00,75.2,67.5,30.15,SSE,156,2.7,3.6,77,0.00,,---,0.55,VWS V14.01,2013-06-23 01:43:00,
2013-06-22 21:44:00,75.2,67.5,30.15,South,173,3.6,3.6,77,0.00,,---,0.55,VWS V14.01,2013-06-23 01:44:00,
2013-06-22 21:45:00,75.2,67.5,30.15,SSW,195,3.1,3.6,77,0.00,,---,0.55,VWS V14.01,2013-06-23 01:45:00,
2013-06-22 21:47:00,75.2,67.5,30.15,SSE,168,5.4,5.8,77,0.00,,---,0.55,VWS V14.01,2013-06-23 01:47:00,
2013-06-22 21:48:00,75.2,67.5,30.15,SSE,168,4.9,5.8,77,0.00,,---,0.55,VWS V14.01,2013-06-23 01:48:00,
2013-06-22 21:49:00,75.2,67.5,30.15,SSE,166,3.6,4.9,77,0.00,,---,0.55,VWS V14.01,2013-06-23 01:49:00,
2013-06-22 21:50:00,75.2,67.5,30.15,South,171,3.1,3.1,77,0.00,,---,0.55,VWS V14.01,2013-06-23 01:50:00,
2013-06-22 21:52:00,75.2,67.5,30.15,South,170,5.8,5.8,77,0.00,,---,0.55,VWS V14.01,2013-06-23 01:52:00,
2013-06-22 21:53:00,75.2,67.5,30.15,South,170,5.8,5.8,77,0.00,,---,0.55,VWS V14.01,2013-06-23 01:53:00,
2013-06-22 21:54:00,75.0,67.3,30.15,South,170,4.9,4.9,77,0.00,,---,0.55,VWS V14.01,2013-06-23 01:54:00,
2013-06-22 21:56:00,75.0,67.3,30.15,SE,141,4.9,5.4,77,0.00,,---,0.55,VWS V14.01,2013-06-23 01:56:00,
2013-06-22 21:57:00,75.0,67.3,30.15,SE,129,4.0,4.9,77,0.00,,---,0.55,VWS V14.01,2013-06-23 01:57:00,
2013-06-22 21:58:00,75.0,67.3,30.15,SSE,147,2.7,4.9,77,0.00,,---,0.55,VWS V14.01,2013-06-23 01:58:00,
2013-06-22 21:59:00,75.0,67.3,30.15,SE,143,4.9,4.9,77,0.00,,---,0.55,VWS V14.01,2013-06-23 01:59:00,
2013-06-22 22:01:00,75.0,67.3,30.15,SE,142,9.2,9.2,77,0.00,,---,0.55,VWS V14.01,2013-06-23 02:01:00,
2013-06-22 22:02:00,75.0,67.3,30.15,SSE,164,4.0,4.0,77,0.00,,---,0.55,VWS V14.01,2013-06-23 02:02:00,
2013-06-22 22:03:00,75.2,67.5,30.15,SE,145,4.0,4.0,77,0.00,,---,0.55,VWS V14.01,2013-06-23 02:03:00,
2013-06-22 22:04:00,75.2,67.5,30.15,ESE,122,3.1,4.0,77,0.00,,---,0.55,VWS V14.01,2013-06-23 02:04:00,
2013-06-22 22:06:00,75.2,67.5,30.18,SSE,157,4.0,4.0,77,0.00,,---,0.55,VWS V14.01,2013-06-23 02:06:00,
2013-06-22 22:07:00,75.2,67.5,30.18,SSW,202,5.4,6.3,77,0.00,,---,0.55,VWS V14.01,2013-06-23 02:07:00,
2013-06-22 22:08:00,75.2,67.5,30.18,SE,143,3.6,6.3,77,0.00,,---,0.55,VWS V14.01,2013-06-23 02:08:00,
2013-06-22 22:09:00,75.2,67.5,30.18,SE,143,3.6,3.6,77,0.00,,---,0.55,VWS V14.01,2013-06-23 02:09:00,
2013-06-22 22:10:00,75.2,67.5,30.18,SSE,166,4.0,5.8,77,0.00,,---,0.55,VWS V14.01,2013-06-23 02:10:00,
2013-06-22 22:11:00,75.2,67.5,30.18,South,176,2.7,4.0,77,0.00,,---,0.55,VWS V14.01,2013-06-23 02:11:00,
2013-06-22 22:12:00,75.4,67.7,30.18,SSE,160,5.4,5.4,77,0.00,,---,0.55,VWS V14.01,2013-06-23 02:12:00,
2013-06-22 22:13:00,75.4,67.7,30.18,SSE,155,4.0,5.4,77,0.00,,---,0.55,VWS V14.01,2013-06-23 02:13:00,
2013-06-22 22:14:00,75.4,67.7,30.18,SE,126,5.4,5.4,77,0.00,,---,0.55,VWS V14.01,2013-06-23 02:14:00,
2013-06-22 22:15:00,75.4,67.7,30.18,South,173,5.8,5.8,77,0.00,,---,0.55,VWS V14.01,2013-06-23 02:15:00,
2013-06-22 22:16:00,75.4,67.7,30.18,SSE,150,3.6,3.6,77,0.00,,---,0.55,VWS V14.01,2013-06-23 02:16:00,
2013-06-22 22:17:00,75.4,67.7,30.18,SSE,158,3.6,3.6,77,0.00,,---,0.55,VWS V14.01,2013-06-23 02:17:00,
2013-06-22 22:18:00,75.4,67.7,30.18,SSE,158,3.6,3.6,77,0.00,,---,0.55,VWS V14.01,2013-06-23 02:18:00,
2013-06-22 22:19:00,75.4,67.7,30.18,South,183,3.6,3.6,77,0.00,,---,0.55,VWS V14.01,2013-06-23 02:19:00,
2013-06-22 22:20:00,75.4,67.7,30.18,SSE,168,5.4,5.4,77,0.00,,---,0.55,VWS V14.01,2013-06-23 02:20:00,
2013-06-22 22:21:00,75.4,67.7,30.18,South,174,3.6,3.6,77,0.00,,---,0.55,VWS V14.01,2013-06-23 02:21:00,
2013-06-22 22:22:00,75.4,67.7,30.18,SE,127,6.7,6.7,77,0.00,,---,0.55,VWS V14.01,2013-06-23 02:22:00,
2013-06-22 22:23:00,75.4,67.7,30.18,SE,127,6.7,6.7,77,0.00,,---,0.55,VWS V14.01,2013-06-23 02:23:00,
2013-06-22 22:24:00,75.4,67.7,30.18,South,173,3.1,5.4,77,0.00,,---,0.55,VWS V14.01,2013-06-23 02:24:00,
2013-06-22 22:25:00,75.4,67.7,30.18,ESE,115,6.3,6.3,77,0.00,,---,0.55,VWS V14.01,2013-06-23 02:25:00,
2013-06-22 22:26:00,75.4,67.7,30.18,SSW,211,3.6,3.6,77,0.00,,---,0.55,VWS V14.01,2013-06-23 02:26:00,
2013-06-22 22:27:00,75.4,67.7,30.18,SSW,211,3.6,3.6,77,0.00,,---,0.55,VWS V14.01,2013-06-23 02:27:00,
2013-06-22 22:28:00,75.4,67.7,30.18,SSE,153,0.0,2.7,77,0.00,,---,0.55,VWS V14.01,2013-06-23 02:28:00,
2013-06-22 22:29:00,75.4,67.7,30.18,SSE,153,0.0,0.0,77,0.00,,---,0.55,VWS V14.01,2013-06-23 02:29:00,
2013-06-22 22:30:00,75.4,67.7,30.18,SSE,152,3.6,3.6,77,0.00,,---,0.55,VWS V14.01,2013-06-23 02:30:00,
2013-06-22 22:31:00,75.4,67.7,30.18,South,177,3.1,3.6,77,0.00,,---,0.55,VWS V14.01,2013-06-23 02:31:00,
2013-06-22 22:32:00,75.4,67.7,30.18,SSE,154,3.6,3.6,77,0.00,,---,0.55,VWS V14.01,2013-06-23 02:32:00,
2013-06-22 22:33:00,75.4,67.7,30.18,SSW,199,2.7,3.6,77,0.00,,---,0.55,VWS V14.01,2013-06-23 02:33:00,
2013-06-22 22:34:00,75.4,67.7,30.18,SW,214,0.0,0.0,77,0.00,,---,0.55,VWS V14.01,2013-06-23 02:34:00,
2013-06-22 22:35:00,75.4,67.7,30.18,SW,214,0.0,0.0,77,0.00,,---,0.55,VWS V14.01,2013-06-23 02:35:00,
2013-06-22 22:36:00,75.4,67.7,30.18,South,176,4.9,4.9,77,0.00,,---,0.55,VWS V14.01,2013-06-23 02:36:00,
2013-06-22 22:37:00,75.4,67.7,30.18,South,173,3.6,4.9,77,0.00,,---,0.55,VWS V14.01,2013-06-23 02:37:00,
2013-06-22 22:38:00,75.4,67.7,30.18,South,173,3.6,3.6,77,0.00,,---,0.55,VWS V14.01,2013-06-23 02:38:00,
2013-06-22 22:39:00,75.4,67.7,30.18,South,186,4.0,4.0,77,0.00,,---,0.55,VWS V14.01,2013-06-23 02:39:00,
2013-06-22 22:40:00,75.4,67.7,30.18,SSE,148,2.7,4.0,77,0.00,,---,0.55,VWS V14.01,2013-06-23 02:40:00,
2013-06-22 22:41:00,75.4,67.7,30.18,SSW,192,2.7,2.7,77,0.00,,---,0.55,VWS V14.01,2013-06-23 02:41:00,
2013-06-22 22:42:00,75.4,67.7,30.18,SSE,160,2.7,2.7,77,0.00,,---,0.55,VWS V14.01,2013-06-23 02:42:00,
2013-06-22 22:43:00,75.4,67.7,30.18,SSE,160,2.7,2.7,77,0.00,,---,0.55,VWS V14.01,2013-06-23 02:43:00,
2013-06-22 22:44:00,75.4,67.7,30.18,SSW,203,4.9,4.9,77,0.00,,---,0.55,VWS V14.01,2013-06-23 02:44:00,
2013-06-22 22:45:00,75.4,67.7,30.18,SSE,158,5.8,5.8,77,0.00,,---,0.55,VWS V14.01,2013-06-23 02:45:00,
2013-06-22 22:46:00,75.4,67.7,30.18,South,183,3.1,3.1,77,0.00,,---,0.55,VWS V14.01,2013-06-23 02:46:00,
2013-06-22 22:47:00,75.4,67.7,30.18,South,188,2.7,2.7,77,0.00,,---,0.55,VWS V14.01,2013-06-23 02:47:00,
2013-06-22 22:48:00,75.4,67.7,30.18,South,170,2.7,4.0,77,0.00,,---,0.55,VWS V14.01,2013-06-23 02:48:00,
2013-06-22 22:49:00,75.4,67.7,30.18,SSW,192,4.9,4.9,77,0.00,,---,0.55,VWS V14.01,2013-06-23 02:49:00,
2013-06-22 22:50:00,75.4,67.7,30.18,SSE,152,2.7,2.7,77,0.00,,---,0.55,VWS V14.01,2013-06-23 02:50:00,
2013-06-22 22:51:00,75.4,67.7,30.18,South,172,3.1,3.1,77,0.00,,---,0.55,VWS V14.01,2013-06-23 02:51:00,
2013-06-22 22:52:00,75.4,67.7,30.18,South,171,3.1,3.1,77,0.00,,---,0.55,VWS V14.01,2013-06-23 02:52:00,
2013-06-22 22:53:00,75.4,67.7,30.18,South,183,4.0,4.0,77,0.00,,---,0.55,VWS V14.01,2013-06-23 02:53:00,
2013-06-22 22:54:00,75.4,67.7,30.18,SSE,158,3.1,4.0,77,0.00,,---,0.55,VWS V14.01,2013-06-23 02:54:00,
2013-06-22 22:55:00,75.2,67.5,30.18,South,180,3.1,3.1,77,0.00,,---,0.55,VWS V14.01,2013-06-23 02:55:00,
2013-06-22 22:56:00,75.2,67.5,30.18,SSE,167,4.0,5.8,77,0.00,,---,0.55,VWS V14.01,2013-06-23 02:56:00,
2013-06-22 22:57:00,75.2,67.5,30.18,South,184,3.1,4.0,77,0.00,,---,0.55,VWS V14.01,2013-06-23 02:57:00,
2013-06-22 22:59:00,75.2,67.5,30.18,South,176,3.1,3.1,77,0.00,,---,0.55,VWS V14.01,2013-06-23 02:59:00,
2013-06-22 23:00:00,75.2,67.5,30.18,South,175,2.7,2.7,77,0.00,,---,0.55,VWS V14.01,2013-06-23 03:00:00,
2013-06-22 23:01:00,75.4,68.1,30.18,South,176,3.1,3.1,78,0.00,,---,0.55,VWS V14.01,2013-06-23 03:01:00,
2013-06-22 23:02:00,75.4,68.1,30.18,South,181,3.1,4.0,78,0.00,,---,0.55,VWS V14.01,2013-06-23 03:02:00,
2013-06-22 23:04:00,75.4,68.1,30.18,SW,232,2.7,2.7,78,0.00,,---,0.55,VWS V14.01,2013-06-23 03:04:00,
2013-06-22 23:05:00,75.4,68.1,30.18,South,171,3.6,3.6,78,0.00,,---,0.55,VWS V14.01,2013-06-23 03:05:00,
2013-06-22 23:07:00,75.2,67.5,30.18,ESE,119,4.0,4.0,77,0.00,,---,0.55,VWS V14.01,2013-06-23 03:07:00,
2013-06-22 23:08:00,75.2,67.5,30.18,South,171,4.0,4.0,77,0.00,,---,0.55,VWS V14.01,2013-06-23 03:08:00,
2013-06-22 23:09:00,75.2,67.9,30.18,ESE,119,5.4,5.4,78,0.00,,---,0.55,VWS V14.01,2013-06-23 03:09:00,
2013-06-22 23:10:00,75.2,67.9,30.18,SSE,157,5.4,5.4,78,0.00,,---,0.55,VWS V14.01,2013-06-23 03:10:00,
2013-06-22 23:12:00,75.2,67.9,30.18,SSE,161,3.6,3.6,78,0.00,,---,0.55,VWS V14.01,2013-06-23 03:12:00,
2013-06-22 23:13:00,75.2,67.9,30.18,South,179,2.7,3.6,78,0.00,,---,0.55,VWS V14.01,2013-06-23 03:13:00,
2013-06-22 23:14:00,75.2,67.9,30.18,SE,141,3.6,3.6,78,0.00,,---,0.55,VWS V14.01,2013-06-23 03:14:00,
2013-06-22 23:15:00,75.2,67.9,30.18,SSE,155,4.0,4.0,78,0.00,,---,0.55,VWS V14.01,2013-06-23 03:15:00,
2013-06-22 23:17:00,75.2,67.9,30.18,SSW,201,4.0,4.0,78,0.00,,---,0.55,VWS V14.01,2013-06-23 03:17:00,
2013-06-22 23:18:00,75.2,67.9,30.18,SSW,197,4.0,4.0,78,0.00,,---,0.55,VWS V14.01,2013-06-23 03:18:00,
2013-06-22 23:19:00,75.2,67.9,30.18,South,171,4.9,4.9,78,0.00,,---,0.55,VWS V14.01,2013-06-23 03:19:00,
2013-06-22 23:20:00,75.2,67.9,30.18,SSW,199,4.0,4.0,78,0.00,,---,0.55,VWS V14.01,2013-06-23 03:20:00,
2013-06-22 23:22:00,75.2,67.9,30.18,SSE,152,5.4,5.4,78,0.00,,---,0.55,VWS V14.01,2013-06-23 03:22:00,
2013-06-22 23:23:00,75.2,67.9,30.18,SSE,155,4.0,5.4,78,0.00,,---,0.55,VWS V14.01,2013-06-23 03:23:00,
2013-06-22 23:24:00,75.2,67.9,30.18,South,181,3.6,3.6,78,0.00,,---,0.55,VWS V14.01,2013-06-23 03:24:00,
2013-06-22 23:25:00,75.2,67.9,30.18,SSW,194,3.6,3.6,78,0.00,,---,0.55,VWS V14.01,2013-06-23 03:25:00,
2013-06-22 23:27:00,75.2,67.9,30.18,SSW,198,3.6,4.9,78,0.00,,---,0.55,VWS V14.01,2013-06-23 03:27:00,
2013-06-22 23:28:00,75.2,67.9,30.18,SSW,198,3.6,3.6,78,0.00,,---,0.55,VWS V14.01,2013-06-23 03:28:00,
2013-06-22 23:29:00,75.4,68.1,30.18,SSW,193,3.6,3.6,78,0.00,,---,0.55,VWS V14.01,2013-06-23 03:29:00,
2013-06-22 23:30:00,75.4,68.1,30.18,South,186,4.0,4.0,78,0.00,,---,0.55,VWS V14.01,2013-06-23 03:30:00,
2013-06-22 23:32:00,75.4,68.1,30.18,WSW,238,7.6,7.6,78,0.00,,---,0.55,VWS V14.01,2013-06-23 03:32:00,
2013-06-22 23:33:00,75.4,68.1,30.18,WSW,238,7.6,7.6,78,0.00,,---,0.55,VWS V14.01,2013-06-23 03:33:00,
2013-06-22 23:34:00,75.4,68.1,30.18,SSW,193,6.3,6.3,78,0.00,,---,0.55,VWS V14.01,2013-06-23 03:34:00,
2013-06-22 23:35:00,75.4,68.1,30.18,SSE,162,6.3,6.3,78,0.00,,---,0.55,VWS V14.01,2013-06-23 03:35:00,
2013-06-22 23:37:00,75.4,68.1,30.18,SSW,195,5.4,5.4,78,0.00,,---,0.55,VWS V14.01,2013-06-23 03:37:00,
2013-06-22 23:38:00,75.4,68.1,30.18,SSE,159,5.4,5.4,78,0.00,,---,0.55,VWS V14.01,2013-06-23 03:38:00,
2013-06-22 23:39:00,75.4,68.1,30.18,SSE,157,5.8,5.8,78,0.00,,---,0.55,VWS V14.01,2013-06-23 03:39:00,
2013-06-22 23:40:00,75.4,68.1,30.18,SSE,157,5.8,5.8,78,0.00,,---,0.55,VWS V14.01,2013-06-23 03:40:00,
2013-06-22 23:41:00,75.4,68.1,30.18,SSE,163,4.0,5.8,78,0.00,,---,0.55,VWS V14.01,2013-06-23 03:41:00,
2013-06-22 23:42:00,75.4,68.1,30.18,SSE,156,3.1,3.1,78,0.00,,---,0.55,VWS V14.01,2013-06-23 03:42:00,
2013-06-22 23:43:00,75.4,68.1,30.18,SSW,201,3.6,3.6,78,0.00,,---,0.55,VWS V14.01,2013-06-23 03:43:00,
2013-06-22 23:45:00,75.4,68.1,30.18,SE,140,5.8,5.8,78,0.00,,---,0.55,VWS V14.01,2013-06-23 03:45:00,
2013-06-22 23:46:00,75.4,68.1,30.18,South,179,4.9,5.8,78,0.00,,---,0.55,VWS V14.01,2013-06-23 03:46:00,
2013-06-22 23:48:00,75.4,68.1,30.18,South,173,5.8,5.8,78,0.00,,---,0.55,VWS V14.01,2013-06-23 03:48:00,
2013-06-22 23:50:00,75.6,68.2,30.18,SSW,206,6.3,6.3,78,0.00,,---,0.55,VWS V14.01,2013-06-23 03:50:00,
2013-06-22 23:51:00,75.6,68.2,30.18,SSE,149,2.7,6.3,78,0.00,,---,0.55,VWS V14.01,2013-06-23 03:51:00,
2013-06-22 23:53:00,75.6,68.2,30.18,South,176,3.6,5.4,78,0.00,,---,0.55,VWS V14.01,2013-06-23 03:53:00,
2013-06-22 23:55:00,75.6,68.2,30.18,South,178,3.1,3.1,78,0.00,,---,0.55,VWS V14.01,2013-06-23 03:55:00,
2013-06-22 23:56:00,75.6,68.2,30.18,SSE,167,3.1,3.6,78,0.00,,---,0.55,VWS V14.01,2013-06-23 03:56:00,
2013-06-22 23:58:00,75.6,68.2,30.18,South,185,3.6,3.6,78,0.00,,---,0.55,VWS V14.01,2013-06-23 03:58:00,